<?xml version="1.0" encoding="UTF-8" standalone="no" ?>
<gpx xmlns="http://www.topografix.com/GPX/1/1" xmlns:xsi="http://www.w3.org/2001/XMLSchema-instance" xsi:schemaLocation="http://www.topografix.com/GPX/1/1 http://www.topografix.com/GPX/1/1/gpx.xsd" version="1.1" creator="VisuGPX - https://www.visugpx.com">
  <metadata>
    <name>VTT Monsérieux depuis Gigors </name>
    <desc><![CDATA[Joili circuit par pistes et chemins au départ de Gigors 04 ]]></desc>
  </metadata>
  <trk>
    <name><![CDATA[N°26  Montsérieux depuis Gigors avec RSPG]]></name>
    <trkseg>
      <trkpt lat="44.41881" lon="6.16114">
        <ele>790.3410645</ele>
        <time>2011-11-29T08:49:06Z</time>
      </trkpt>
      <trkpt lat="44.41876" lon="6.16112">
        <ele>795.6281738</ele>
        <time>2011-11-29T08:49:39Z</time>
      </trkpt>
      <trkpt lat="44.41876" lon="6.16111">
        <ele>800.9155273</ele>
        <time>2011-11-29T08:49:41Z</time>
      </trkpt>
      <trkpt lat="44.41876" lon="6.16111">
        <ele>806.2026367</ele>
        <time>2011-11-29T08:49:43Z</time>
      </trkpt>
      <trkpt lat="44.41876" lon="6.16111">
        <ele>810.5285645</ele>
        <time>2011-11-29T08:49:45Z</time>
      </trkpt>
      <trkpt lat="44.41876" lon="6.16111">
        <ele>810.5285645</ele>
        <time>2011-11-29T08:49:46Z</time>
      </trkpt>
      <trkpt lat="44.41877" lon="6.16111">
        <ele>812.9321289</ele>
        <time>2011-11-29T08:49:50Z</time>
      </trkpt>
      <trkpt lat="44.41876" lon="6.16111">
        <ele>817.2580566</ele>
        <time>2011-11-29T08:49:57Z</time>
      </trkpt>
      <trkpt lat="44.41876" lon="6.16111">
        <ele>821.1032715</ele>
        <time>2011-11-29T08:49:59Z</time>
      </trkpt>
      <trkpt lat="44.41876" lon="6.16111">
        <ele>825.4289551</ele>
        <time>2011-11-29T08:50:01Z</time>
      </trkpt>
      <trkpt lat="44.41876" lon="6.16111">
        <ele>828.3132324</ele>
        <time>2011-11-29T08:50:03Z</time>
      </trkpt>
      <trkpt lat="44.41876" lon="6.16111">
        <ele>831.6777344</ele>
        <time>2011-11-29T08:50:05Z</time>
      </trkpt>
      <trkpt lat="44.41876" lon="6.16111">
        <ele>835.0424805</ele>
        <time>2011-11-29T08:50:07Z</time>
      </trkpt>
      <trkpt lat="44.41876" lon="6.16112">
        <ele>838.8876953</ele>
        <time>2011-11-29T08:50:10Z</time>
      </trkpt>
      <trkpt lat="44.41876" lon="6.16112">
        <ele>842.7329102</ele>
        <time>2011-11-29T08:50:13Z</time>
      </trkpt>
      <trkpt lat="44.41876" lon="6.16112">
        <ele>846.0976563</ele>
        <time>2011-11-29T08:50:16Z</time>
      </trkpt>
      <trkpt lat="44.41877" lon="6.16112">
        <ele>849.9428711</ele>
        <time>2011-11-29T08:50:20Z</time>
      </trkpt>
      <trkpt lat="44.41877" lon="6.16112">
        <ele>853.7880859</ele>
        <time>2011-11-29T08:50:24Z</time>
      </trkpt>
      <trkpt lat="44.41877" lon="6.16111">
        <ele>856.671875</ele>
        <time>2011-11-29T08:50:28Z</time>
      </trkpt>
      <trkpt lat="44.41876" lon="6.1611">
        <ele>860.0366211</ele>
        <time>2011-11-29T08:50:32Z</time>
      </trkpt>
      <trkpt lat="44.41876" lon="6.16109">
        <ele>862.9206543</ele>
        <time>2011-11-29T08:50:37Z</time>
      </trkpt>
      <trkpt lat="44.41876" lon="6.16109">
        <ele>866.7658691</ele>
        <time>2011-11-29T08:50:43Z</time>
      </trkpt>
      <trkpt lat="44.41876" lon="6.16109">
        <ele>867.7270508</ele>
        <time>2011-11-29T08:50:45Z</time>
      </trkpt>
      <trkpt lat="44.41876" lon="6.16109">
        <ele>870.611084</ele>
        <time>2011-11-29T08:50:52Z</time>
      </trkpt>
      <trkpt lat="44.41876" lon="6.16109">
        <ele>873.9755859</ele>
        <time>2011-11-29T08:51:01Z</time>
      </trkpt>
      <trkpt lat="44.41876" lon="6.16109">
        <ele>875.4174805</ele>
        <time>2011-11-29T08:51:07Z</time>
      </trkpt>
      <trkpt lat="44.41876" lon="6.16109">
        <ele>878.3017578</ele>
        <time>2011-11-29T08:51:28Z</time>
      </trkpt>
      <trkpt lat="44.41876" lon="6.16109">
        <ele>880.2243652</ele>
        <time>2011-11-29T08:53:00Z</time>
      </trkpt>
      <trkpt lat="44.41875" lon="6.1611">
        <ele>880.7050781</ele>
        <time>2011-11-29T08:53:56Z</time>
      </trkpt>
      <trkpt lat="44.41874" lon="6.16112">
        <ele>880.2243652</ele>
        <time>2011-11-29T08:54:43Z</time>
      </trkpt>
      <trkpt lat="44.41874" lon="6.16113">
        <ele>880.7050781</ele>
        <time>2011-11-29T08:54:46Z</time>
      </trkpt>
      <trkpt lat="44.41869" lon="6.16115">
        <ele>879.2629395</ele>
        <time>2011-11-29T08:54:50Z</time>
      </trkpt>
      <trkpt lat="44.41863" lon="6.16103">
        <ele>878.3017578</ele>
        <time>2011-11-29T08:54:55Z</time>
      </trkpt>
      <trkpt lat="44.41861" lon="6.16082">
        <ele>878.7824707</ele>
        <time>2011-11-29T08:55:06Z</time>
      </trkpt>
      <trkpt lat="44.41873" lon="6.16022">
        <ele>879.7436523</ele>
        <time>2011-11-29T08:55:25Z</time>
      </trkpt>
      <trkpt lat="44.41891" lon="6.15928">
        <ele>880.7050781</ele>
        <time>2011-11-29T08:55:48Z</time>
      </trkpt>
      <trkpt lat="44.41897" lon="6.15872">
        <ele>883.1081543</ele>
        <time>2011-11-29T08:56:03Z</time>
      </trkpt>
      <trkpt lat="44.41899" lon="6.1581">
        <ele>885.0310059</ele>
        <time>2011-11-29T08:56:20Z</time>
      </trkpt>
      <trkpt lat="44.41906" lon="6.15756">
        <ele>887.434082</ele>
        <time>2011-11-29T08:56:38Z</time>
      </trkpt>
      <trkpt lat="44.41903" lon="6.15533">
        <ele>889.3566895</ele>
        <time>2011-11-29T08:57:47Z</time>
      </trkpt>
      <trkpt lat="44.4192" lon="6.15435">
        <ele>895.6054688</ele>
        <time>2011-11-29T08:58:19Z</time>
      </trkpt>
      <trkpt lat="44.41934" lon="6.15354">
        <ele>895.6054688</ele>
        <time>2011-11-29T08:58:46Z</time>
      </trkpt>
      <trkpt lat="44.41935" lon="6.15348">
        <ele>903.7766113</ele>
        <time>2011-11-29T08:58:48Z</time>
      </trkpt>
      <trkpt lat="44.41936" lon="6.15345">
        <ele>904.2573242</ele>
        <time>2011-11-29T08:58:49Z</time>
      </trkpt>
      <trkpt lat="44.41946" lon="6.15283">
        <ele>907.1411133</ele>
        <time>2011-11-29T08:59:10Z</time>
      </trkpt>
      <trkpt lat="44.41959" lon="6.15232">
        <ele>909.0639648</ele>
        <time>2011-11-29T08:59:27Z</time>
      </trkpt>
      <trkpt lat="44.41982" lon="6.15154">
        <ele>911.947998</ele>
        <time>2011-11-29T08:59:53Z</time>
      </trkpt>
      <trkpt lat="44.4201" lon="6.15074">
        <ele>914.3510742</ele>
        <time>2011-11-29T09:00:19Z</time>
      </trkpt>
      <trkpt lat="44.42032" lon="6.15003">
        <ele>916.2736816</ele>
        <time>2011-11-29T09:00:41Z</time>
      </trkpt>
      <trkpt lat="44.42076" lon="6.14947">
        <ele>916.7543945</ele>
        <time>2011-11-29T09:01:02Z</time>
      </trkpt>
      <trkpt lat="44.42115" lon="6.14936">
        <ele>915.7932129</ele>
        <time>2011-11-29T09:01:12Z</time>
      </trkpt>
      <trkpt lat="44.42128" lon="6.14931">
        <ele>915.3125</ele>
        <time>2011-11-29T09:01:15Z</time>
      </trkpt>
      <trkpt lat="44.42145" lon="6.14923">
        <ele>915.3125</ele>
        <time>2011-11-29T09:01:19Z</time>
      </trkpt>
      <trkpt lat="44.42161" lon="6.1489">
        <ele>913.3898926</ele>
        <time>2011-11-29T09:01:26Z</time>
      </trkpt>
      <trkpt lat="44.4216" lon="6.14876">
        <ele>913.3898926</ele>
        <time>2011-11-29T09:01:28Z</time>
      </trkpt>
      <trkpt lat="44.42148" lon="6.14795">
        <ele>915.3125</ele>
        <time>2011-11-29T09:01:42Z</time>
      </trkpt>
      <trkpt lat="44.42122" lon="6.14787">
        <ele>916.7543945</ele>
        <time>2011-11-29T09:01:52Z</time>
      </trkpt>
      <trkpt lat="44.42086" lon="6.14764">
        <ele>918.677002</ele>
        <time>2011-11-29T09:02:07Z</time>
      </trkpt>
      <trkpt lat="44.42094" lon="6.14713">
        <ele>920.5996094</ele>
        <time>2011-11-29T09:02:22Z</time>
      </trkpt>
      <trkpt lat="44.42112" lon="6.14644">
        <ele>922.0415039</ele>
        <time>2011-11-29T09:02:43Z</time>
      </trkpt>
      <trkpt lat="44.42118" lon="6.14624">
        <ele>923.9641113</ele>
        <time>2011-11-29T09:02:49Z</time>
      </trkpt>
      <trkpt lat="44.42129" lon="6.14571">
        <ele>924.9257813</ele>
        <time>2011-11-29T09:03:04Z</time>
      </trkpt>
      <trkpt lat="44.42124" lon="6.14503">
        <ele>927.8095703</ele>
        <time>2011-11-29T09:03:23Z</time>
      </trkpt>
      <trkpt lat="44.42117" lon="6.14431">
        <ele>930.2128906</ele>
        <time>2011-11-29T09:03:43Z</time>
      </trkpt>
      <trkpt lat="44.42111" lon="6.14365">
        <ele>932.6162109</ele>
        <time>2011-11-29T09:04:02Z</time>
      </trkpt>
      <trkpt lat="44.42107" lon="6.14288">
        <ele>935.0195313</ele>
        <time>2011-11-29T09:04:24Z</time>
      </trkpt>
      <trkpt lat="44.42128" lon="6.14236">
        <ele>937.9033203</ele>
        <time>2011-11-29T09:04:42Z</time>
      </trkpt>
      <trkpt lat="44.42161" lon="6.14185">
        <ele>939.8259277</ele>
        <time>2011-11-29T09:05:02Z</time>
      </trkpt>
      <trkpt lat="44.42193" lon="6.14135">
        <ele>941.7487793</ele>
        <time>2011-11-29T09:05:21Z</time>
      </trkpt>
      <trkpt lat="44.42217" lon="6.14089">
        <ele>944.6325684</ele>
        <time>2011-11-29T09:05:39Z</time>
      </trkpt>
      <trkpt lat="44.42223" lon="6.14041">
        <ele>945.5939941</ele>
        <time>2011-11-29T09:05:54Z</time>
      </trkpt>
      <trkpt lat="44.42188" lon="6.1401">
        <ele>946.5554199</ele>
        <time>2011-11-29T09:06:08Z</time>
      </trkpt>
      <trkpt lat="44.42156" lon="6.1398">
        <ele>948.4777832</ele>
        <time>2011-11-29T09:06:23Z</time>
      </trkpt>
      <trkpt lat="44.42136" lon="6.13916">
        <ele>950.8811035</ele>
        <time>2011-11-29T09:06:42Z</time>
      </trkpt>
      <trkpt lat="44.42122" lon="6.13867">
        <ele>952.322998</ele>
        <time>2011-11-29T09:06:57Z</time>
      </trkpt>
      <trkpt lat="44.42114" lon="6.13803">
        <ele>954.2458496</ele>
        <time>2011-11-29T09:07:15Z</time>
      </trkpt>
      <trkpt lat="44.42104" lon="6.1374">
        <ele>956.6491699</ele>
        <time>2011-11-29T09:07:34Z</time>
      </trkpt>
      <trkpt lat="44.42088" lon="6.13684">
        <ele>959.5332031</ele>
        <time>2011-11-29T09:07:51Z</time>
      </trkpt>
      <trkpt lat="44.42076" lon="6.13646">
        <ele>961.4558105</ele>
        <time>2011-11-29T09:08:05Z</time>
      </trkpt>
      <trkpt lat="44.4206" lon="6.13633">
        <ele>962.8977051</ele>
        <time>2011-11-29T09:08:12Z</time>
      </trkpt>
      <trkpt lat="44.42045" lon="6.13589">
        <ele>964.8203125</ele>
        <time>2011-11-29T09:08:28Z</time>
      </trkpt>
      <trkpt lat="44.4206" lon="6.13555">
        <ele>966.7429199</ele>
        <time>2011-11-29T09:08:42Z</time>
      </trkpt>
      <trkpt lat="44.42062" lon="6.13512">
        <ele>968.1848145</ele>
        <time>2011-11-29T09:08:57Z</time>
      </trkpt>
      <trkpt lat="44.4204" lon="6.13451">
        <ele>970.5881348</ele>
        <time>2011-11-29T09:09:18Z</time>
      </trkpt>
      <trkpt lat="44.42016" lon="6.13448">
        <ele>971.5493164</ele>
        <time>2011-11-29T09:09:30Z</time>
      </trkpt>
      <trkpt lat="44.42011" lon="6.13449">
        <ele>971.5493164</ele>
        <time>2011-11-29T09:09:32Z</time>
      </trkpt>
      <trkpt lat="44.41995" lon="6.13442">
        <ele>972.0302734</ele>
        <time>2011-11-29T09:09:39Z</time>
      </trkpt>
      <trkpt lat="44.41989" lon="6.1343">
        <ele>973.4724121</ele>
        <time>2011-11-29T09:09:44Z</time>
      </trkpt>
      <trkpt lat="44.41985" lon="6.13392">
        <ele>975.3947754</ele>
        <time>2011-11-29T09:09:57Z</time>
      </trkpt>
      <trkpt lat="44.4196" lon="6.1337">
        <ele>976.3562012</ele>
        <time>2011-11-29T09:10:10Z</time>
      </trkpt>
      <trkpt lat="44.41926" lon="6.13385">
        <ele>977.317627</ele>
        <time>2011-11-29T09:10:25Z</time>
      </trkpt>
      <trkpt lat="44.41899" lon="6.13374">
        <ele>978.2788086</ele>
        <time>2011-11-29T09:10:36Z</time>
      </trkpt>
      <trkpt lat="44.41873" lon="6.13315">
        <ele>980.6821289</ele>
        <time>2011-11-29T09:10:57Z</time>
      </trkpt>
      <trkpt lat="44.41837" lon="6.13219">
        <ele>984.0466309</ele>
        <time>2011-11-29T09:11:29Z</time>
      </trkpt>
      <trkpt lat="44.41813" lon="6.13148">
        <ele>986.9304199</ele>
        <time>2011-11-29T09:11:53Z</time>
      </trkpt>
      <trkpt lat="44.41773" lon="6.13119">
        <ele>988.3728027</ele>
        <time>2011-11-29T09:12:11Z</time>
      </trkpt>
      <trkpt lat="44.41751" lon="6.13074">
        <ele>990.2954102</ele>
        <time>2011-11-29T09:12:26Z</time>
      </trkpt>
      <trkpt lat="44.41723" lon="6.12994">
        <ele>990.2954102</ele>
        <time>2011-11-29T09:12:45Z</time>
      </trkpt>
      <trkpt lat="44.41685" lon="6.12928">
        <ele>990.2954102</ele>
        <time>2011-11-29T09:13:03Z</time>
      </trkpt>
      <trkpt lat="44.41649" lon="6.1286">
        <ele>990.7758789</ele>
        <time>2011-11-29T09:13:22Z</time>
      </trkpt>
      <trkpt lat="44.41615" lon="6.12798">
        <ele>991.7373047</ele>
        <time>2011-11-29T09:13:38Z</time>
      </trkpt>
      <trkpt lat="44.41569" lon="6.12742">
        <ele>991.7373047</ele>
        <time>2011-11-29T09:13:58Z</time>
      </trkpt>
      <trkpt lat="44.41538" lon="6.12688">
        <ele>991.7373047</ele>
        <time>2011-11-29T09:14:18Z</time>
      </trkpt>
      <trkpt lat="44.41538" lon="6.12688">
        <ele>992.2180176</ele>
        <time>2011-11-29T09:14:34Z</time>
      </trkpt>
      <trkpt lat="44.41538" lon="6.12688">
        <ele>992.2180176</ele>
        <time>2011-11-29T09:17:22Z</time>
      </trkpt>
      <trkpt lat="44.41527" lon="6.12645">
        <ele>989.8146973</ele>
        <time>2011-11-29T09:18:05Z</time>
      </trkpt>
      <trkpt lat="44.41516" lon="6.12607">
        <ele>987.8918457</ele>
        <time>2011-11-29T09:18:13Z</time>
      </trkpt>
      <trkpt lat="44.41504" lon="6.1257">
        <ele>985.9692383</ele>
        <time>2011-11-29T09:18:18Z</time>
      </trkpt>
      <trkpt lat="44.41466" lon="6.12466">
        <ele>984.5273438</ele>
        <time>2011-11-29T09:18:31Z</time>
      </trkpt>
      <trkpt lat="44.4146" lon="6.12445">
        <ele>984.0466309</ele>
        <time>2011-11-29T09:18:34Z</time>
      </trkpt>
      <trkpt lat="44.41457" lon="6.12401">
        <ele>984.5273438</ele>
        <time>2011-11-29T09:18:40Z</time>
      </trkpt>
      <trkpt lat="44.41457" lon="6.12372">
        <ele>984.5273438</ele>
        <time>2011-11-29T09:18:44Z</time>
      </trkpt>
      <trkpt lat="44.41457" lon="6.12345">
        <ele>984.5273438</ele>
        <time>2011-11-29T09:18:48Z</time>
      </trkpt>
      <trkpt lat="44.41458" lon="6.1229">
        <ele>982.1240234</ele>
        <time>2011-11-29T09:18:55Z</time>
      </trkpt>
      <trkpt lat="44.41459" lon="6.12226">
        <ele>979.7207031</ele>
        <time>2011-11-29T09:19:02Z</time>
      </trkpt>
      <trkpt lat="44.41453" lon="6.1218">
        <ele>978.7595215</ele>
        <time>2011-11-29T09:19:06Z</time>
      </trkpt>
      <trkpt lat="44.41425" lon="6.12111">
        <ele>978.2788086</ele>
        <time>2011-11-29T09:19:15Z</time>
      </trkpt>
      <trkpt lat="44.41421" lon="6.12077">
        <ele>976.8369141</ele>
        <time>2011-11-29T09:19:20Z</time>
      </trkpt>
      <trkpt lat="44.41423" lon="6.12058">
        <ele>976.8369141</ele>
        <time>2011-11-29T09:19:25Z</time>
      </trkpt>
      <trkpt lat="44.41422" lon="6.1203">
        <ele>975.8754883</ele>
        <time>2011-11-29T09:19:33Z</time>
      </trkpt>
      <trkpt lat="44.41421" lon="6.12028">
        <ele>975.3947754</ele>
        <time>2011-11-29T09:19:38Z</time>
      </trkpt>
      <trkpt lat="44.41423" lon="6.12041">
        <ele>975.8754883</ele>
        <time>2011-11-29T09:19:43Z</time>
      </trkpt>
      <trkpt lat="44.41427" lon="6.1206">
        <ele>976.8369141</ele>
        <time>2011-11-29T09:19:51Z</time>
      </trkpt>
      <trkpt lat="44.41431" lon="6.12071">
        <ele>978.2788086</ele>
        <time>2011-11-29T09:20:03Z</time>
      </trkpt>
      <trkpt lat="44.41431" lon="6.12071">
        <ele>979.2399902</ele>
        <time>2011-11-29T09:20:33Z</time>
      </trkpt>
      <trkpt lat="44.41431" lon="6.12071">
        <ele>979.2399902</ele>
        <time>2011-11-29T09:20:34Z</time>
      </trkpt>
      <trkpt lat="44.41433" lon="6.12099">
        <ele>979.7207031</ele>
        <time>2011-11-29T09:20:40Z</time>
      </trkpt>
      <trkpt lat="44.4144" lon="6.12119">
        <ele>981.1628418</ele>
        <time>2011-11-29T09:20:49Z</time>
      </trkpt>
      <trkpt lat="44.41442" lon="6.12124">
        <ele>982.1240234</ele>
        <time>2011-11-29T09:20:57Z</time>
      </trkpt>
      <trkpt lat="44.41442" lon="6.12124">
        <ele>982.6047363</ele>
        <time>2011-11-29T09:21:01Z</time>
      </trkpt>
      <trkpt lat="44.41442" lon="6.12124">
        <ele>983.0852051</ele>
        <time>2011-11-29T09:21:04Z</time>
      </trkpt>
      <trkpt lat="44.41456" lon="6.12156">
        <ele>985.4885254</ele>
        <time>2011-11-29T09:21:16Z</time>
      </trkpt>
      <trkpt lat="44.41456" lon="6.12156">
        <ele>987.8918457</ele>
        <time>2011-11-29T09:21:32Z</time>
      </trkpt>
      <trkpt lat="44.41456" lon="6.12156">
        <ele>991.2565918</ele>
        <time>2011-11-29T09:21:50Z</time>
      </trkpt>
      <trkpt lat="44.41456" lon="6.12156">
        <ele>993.6599121</ele>
        <time>2011-11-29T09:22:08Z</time>
      </trkpt>
      <trkpt lat="44.4151" lon="6.12219">
        <ele>995.1018066</ele>
        <time>2011-11-29T09:22:20Z</time>
      </trkpt>
      <trkpt lat="44.41514" lon="6.12224">
        <ele>996.0632324</ele>
        <time>2011-11-29T09:22:25Z</time>
      </trkpt>
      <trkpt lat="44.41514" lon="6.12224">
        <ele>997.505127</ele>
        <time>2011-11-29T09:22:39Z</time>
      </trkpt>
      <trkpt lat="44.41537" lon="6.12259">
        <ele>999.9084473</ele>
        <time>2011-11-29T09:22:52Z</time>
      </trkpt>
      <trkpt lat="44.41537" lon="6.12259">
        <ele>999.9084473</ele>
        <time>2011-11-29T09:22:53Z</time>
      </trkpt>
      <trkpt lat="44.41543" lon="6.12267">
        <ele>1000.8696289</ele>
        <time>2011-11-29T09:22:57Z</time>
      </trkpt>
      <trkpt lat="44.41544" lon="6.12269">
        <ele>1002.7922363</ele>
        <time>2011-11-29T09:23:15Z</time>
      </trkpt>
      <trkpt lat="44.41544" lon="6.12269">
        <ele>1002.7922363</ele>
        <time>2011-11-29T09:23:21Z</time>
      </trkpt>
      <trkpt lat="44.41544" lon="6.12269">
        <ele>1005.6765137</ele>
        <time>2011-11-29T09:23:41Z</time>
      </trkpt>
      <trkpt lat="44.41544" lon="6.12269">
        <ele>1006.6376953</ele>
        <time>2011-11-29T09:23:52Z</time>
      </trkpt>
      <trkpt lat="44.41586" lon="6.12333">
        <ele>1008.5603027</ele>
        <time>2011-11-29T09:24:03Z</time>
      </trkpt>
      <trkpt lat="44.41588" lon="6.12337">
        <ele>1010.4829102</ele>
        <time>2011-11-29T09:24:20Z</time>
      </trkpt>
      <trkpt lat="44.41588" lon="6.12337">
        <ele>1012.4055176</ele>
        <time>2011-11-29T09:24:40Z</time>
      </trkpt>
      <trkpt lat="44.41588" lon="6.12337">
        <ele>1015.7702637</ele>
        <time>2011-11-29T09:25:00Z</time>
      </trkpt>
      <trkpt lat="44.41588" lon="6.12337">
        <ele>1018.1733398</ele>
        <time>2011-11-29T09:25:22Z</time>
      </trkpt>
      <trkpt lat="44.4166" lon="6.12425">
        <ele>1020.5769043</ele>
        <time>2011-11-29T09:25:41Z</time>
      </trkpt>
      <trkpt lat="44.41662" lon="6.12425">
        <ele>1021.0576172</ele>
        <time>2011-11-29T09:25:43Z</time>
      </trkpt>
      <trkpt lat="44.41673" lon="6.12416">
        <ele>1022.0187988</ele>
        <time>2011-11-29T09:25:57Z</time>
      </trkpt>
      <trkpt lat="44.41674" lon="6.12413">
        <ele>1022.0187988</ele>
        <time>2011-11-29T09:25:59Z</time>
      </trkpt>
      <trkpt lat="44.41675" lon="6.1241">
        <ele>1022.4995117</ele>
        <time>2011-11-29T09:26:02Z</time>
      </trkpt>
      <trkpt lat="44.41685" lon="6.12395">
        <ele>1024.4221191</ele>
        <time>2011-11-29T09:26:19Z</time>
      </trkpt>
      <trkpt lat="44.41693" lon="6.1238">
        <ele>1025.8640137</ele>
        <time>2011-11-29T09:26:34Z</time>
      </trkpt>
      <trkpt lat="44.41698" lon="6.12374">
        <ele>1026.8254395</ele>
        <time>2011-11-29T09:26:44Z</time>
      </trkpt>
      <trkpt lat="44.41712" lon="6.12357">
        <ele>1028.7480469</ele>
        <time>2011-11-29T09:27:04Z</time>
      </trkpt>
      <trkpt lat="44.41724" lon="6.12348">
        <ele>1030.6706543</ele>
        <time>2011-11-29T09:27:18Z</time>
      </trkpt>
      <trkpt lat="44.41716" lon="6.12337">
        <ele>1031.1513672</ele>
        <time>2011-11-29T09:27:31Z</time>
      </trkpt>
      <trkpt lat="44.41714" lon="6.12335">
        <ele>1031.6318359</ele>
        <time>2011-11-29T09:27:34Z</time>
      </trkpt>
      <trkpt lat="44.41709" lon="6.12333">
        <ele>1032.1125488</ele>
        <time>2011-11-29T09:27:39Z</time>
      </trkpt>
      <trkpt lat="44.41706" lon="6.12333">
        <ele>1032.1125488</ele>
        <time>2011-11-29T09:27:41Z</time>
      </trkpt>
      <trkpt lat="44.41695" lon="6.12328">
        <ele>1033.0737305</ele>
        <time>2011-11-29T09:27:53Z</time>
      </trkpt>
      <trkpt lat="44.41685" lon="6.12322">
        <ele>1033.5544434</ele>
        <time>2011-11-29T09:28:04Z</time>
      </trkpt>
      <trkpt lat="44.4169" lon="6.12316">
        <ele>1033.5544434</ele>
        <time>2011-11-29T09:28:16Z</time>
      </trkpt>
      <trkpt lat="44.41692" lon="6.12314">
        <ele>1034.996582</ele>
        <time>2011-11-29T09:28:35Z</time>
      </trkpt>
      <trkpt lat="44.41685" lon="6.12347">
        <ele>1035.9577637</ele>
        <time>2011-11-29T09:28:49Z</time>
      </trkpt>
      <trkpt lat="44.41691" lon="6.12367">
        <ele>1036.4387207</ele>
        <time>2011-11-29T09:29:05Z</time>
      </trkpt>
      <trkpt lat="44.417" lon="6.12394">
        <ele>1037.8806152</ele>
        <time>2011-11-29T09:29:28Z</time>
      </trkpt>
      <trkpt lat="44.41696" lon="6.1242">
        <ele>1039.8032227</ele>
        <time>2011-11-29T09:29:52Z</time>
      </trkpt>
      <trkpt lat="44.41701" lon="6.12449">
        <ele>1041.2451172</ele>
        <time>2011-11-29T09:30:09Z</time>
      </trkpt>
      <trkpt lat="44.4174" lon="6.12489">
        <ele>1043.6484375</ele>
        <time>2011-11-29T09:30:31Z</time>
      </trkpt>
      <trkpt lat="44.41752" lon="6.12513">
        <ele>1044.6096191</ele>
        <time>2011-11-29T09:30:46Z</time>
      </trkpt>
      <trkpt lat="44.41768" lon="6.1253">
        <ele>1044.6096191</ele>
        <time>2011-11-29T09:30:52Z</time>
      </trkpt>
      <trkpt lat="44.4178" lon="6.1253">
        <ele>1044.1291504</ele>
        <time>2011-11-29T09:31:00Z</time>
      </trkpt>
      <trkpt lat="44.41783" lon="6.12532">
        <ele>1044.1291504</ele>
        <time>2011-11-29T09:31:02Z</time>
      </trkpt>
      <trkpt lat="44.41786" lon="6.12532">
        <ele>1045.090332</ele>
        <time>2011-11-29T09:31:09Z</time>
      </trkpt>
      <trkpt lat="44.41789" lon="6.12533">
        <ele>1044.6096191</ele>
        <time>2011-11-29T09:31:11Z</time>
      </trkpt>
      <trkpt lat="44.41797" lon="6.12523">
        <ele>1045.090332</ele>
        <time>2011-11-29T09:31:25Z</time>
      </trkpt>
      <trkpt lat="44.41799" lon="6.12517">
        <ele>1046.0517578</ele>
        <time>2011-11-29T09:31:35Z</time>
      </trkpt>
      <trkpt lat="44.41796" lon="6.12507">
        <ele>1046.5324707</ele>
        <time>2011-11-29T09:31:46Z</time>
      </trkpt>
      <trkpt lat="44.41803" lon="6.12472">
        <ele>1047.4936523</ele>
        <time>2011-11-29T09:32:14Z</time>
      </trkpt>
      <trkpt lat="44.41806" lon="6.12459">
        <ele>1047.9743652</ele>
        <time>2011-11-29T09:32:22Z</time>
      </trkpt>
      <trkpt lat="44.41808" lon="6.12435">
        <ele>1048.9355469</ele>
        <time>2011-11-29T09:32:41Z</time>
      </trkpt>
      <trkpt lat="44.41805" lon="6.12427">
        <ele>1048.9355469</ele>
        <time>2011-11-29T09:32:51Z</time>
      </trkpt>
      <trkpt lat="44.41794" lon="6.12438">
        <ele>1049.4162598</ele>
        <time>2011-11-29T09:33:06Z</time>
      </trkpt>
      <trkpt lat="44.41794" lon="6.12455">
        <ele>1049.8969727</ele>
        <time>2011-11-29T09:33:16Z</time>
      </trkpt>
      <trkpt lat="44.41796" lon="6.12462">
        <ele>1050.3776855</ele>
        <time>2011-11-29T09:33:19Z</time>
      </trkpt>
      <trkpt lat="44.41787" lon="6.12459">
        <ele>1050.8581543</ele>
        <time>2011-11-29T09:33:30Z</time>
      </trkpt>
      <trkpt lat="44.41789" lon="6.12454">
        <ele>1050.8581543</ele>
        <time>2011-11-29T09:33:35Z</time>
      </trkpt>
      <trkpt lat="44.41801" lon="6.12436">
        <ele>1051.3388672</ele>
        <time>2011-11-29T09:33:50Z</time>
      </trkpt>
      <trkpt lat="44.41822" lon="6.12442">
        <ele>1052.7810059</ele>
        <time>2011-11-29T09:34:04Z</time>
      </trkpt>
      <trkpt lat="44.41837" lon="6.12446">
        <ele>1054.2231445</ele>
        <time>2011-11-29T09:34:15Z</time>
      </trkpt>
      <trkpt lat="44.41858" lon="6.12463">
        <ele>1056.1455078</ele>
        <time>2011-11-29T09:34:29Z</time>
      </trkpt>
      <trkpt lat="44.4187" lon="6.12462">
        <ele>1057.5876465</ele>
        <time>2011-11-29T09:34:42Z</time>
      </trkpt>
      <trkpt lat="44.41874" lon="6.12467">
        <ele>1057.1069336</ele>
        <time>2011-11-29T09:34:46Z</time>
      </trkpt>
      <trkpt lat="44.41884" lon="6.12505">
        <ele>1058.0683594</ele>
        <time>2011-11-29T09:35:01Z</time>
      </trkpt>
      <trkpt lat="44.41884" lon="6.12503">
        <ele>1058.0683594</ele>
        <time>2011-11-29T09:35:03Z</time>
      </trkpt>
      <trkpt lat="44.41907" lon="6.12523">
        <ele>1058.5488281</ele>
        <time>2011-11-29T09:35:18Z</time>
      </trkpt>
      <trkpt lat="44.41908" lon="6.12528">
        <ele>1055.6650391</ele>
        <time>2011-11-29T09:35:46Z</time>
      </trkpt>
      <trkpt lat="44.41907" lon="6.12524">
        <ele>1052.300293</ele>
        <time>2011-11-29T09:36:17Z</time>
      </trkpt>
      <trkpt lat="44.41907" lon="6.12517">
        <ele>1049.4162598</ele>
        <time>2011-11-29T09:36:47Z</time>
      </trkpt>
      <trkpt lat="44.41911" lon="6.12519">
        <ele>1046.5324707</ele>
        <time>2011-11-29T09:37:16Z</time>
      </trkpt>
      <trkpt lat="44.41911" lon="6.12524">
        <ele>1043.1677246</ele>
        <time>2011-11-29T09:37:51Z</time>
      </trkpt>
      <trkpt lat="44.41911" lon="6.1253">
        <ele>1040.2839355</ele>
        <time>2011-11-29T09:38:21Z</time>
      </trkpt>
      <trkpt lat="44.41913" lon="6.12536">
        <ele>1038.3613281</ele>
        <time>2011-11-29T09:38:48Z</time>
      </trkpt>
      <trkpt lat="44.41915" lon="6.12548">
        <ele>1034.996582</ele>
        <time>2011-11-29T09:39:18Z</time>
      </trkpt>
      <trkpt lat="44.41917" lon="6.12555">
        <ele>1032.1125488</ele>
        <time>2011-11-29T09:39:54Z</time>
      </trkpt>
      <trkpt lat="44.41918" lon="6.1255">
        <ele>1029.2285156</ele>
        <time>2011-11-29T09:40:30Z</time>
      </trkpt>
      <trkpt lat="44.41913" lon="6.12538">
        <ele>1025.8640137</ele>
        <time>2011-11-29T09:41:05Z</time>
      </trkpt>
      <trkpt lat="44.41914" lon="6.1254">
        <ele>1022.4995117</ele>
        <time>2011-11-29T09:41:46Z</time>
      </trkpt>
      <trkpt lat="44.41912" lon="6.12539">
        <ele>1021.0576172</ele>
        <time>2011-11-29T09:42:06Z</time>
      </trkpt>
      <trkpt lat="44.41915" lon="6.12539">
        <ele>1017.692627</ele>
        <time>2011-11-29T09:42:42Z</time>
      </trkpt>
      <trkpt lat="44.41914" lon="6.12534">
        <ele>1014.8088379</ele>
        <time>2011-11-29T09:43:17Z</time>
      </trkpt>
      <trkpt lat="44.41912" lon="6.12531">
        <ele>1011.9250488</ele>
        <time>2011-11-29T09:43:54Z</time>
      </trkpt>
      <trkpt lat="44.41909" lon="6.12527">
        <ele>1008.5603027</ele>
        <time>2011-11-29T09:44:34Z</time>
      </trkpt>
      <trkpt lat="44.41909" lon="6.12525">
        <ele>1008.5603027</ele>
        <time>2011-11-29T09:44:35Z</time>
      </trkpt>
      <trkpt lat="44.41914" lon="6.1252">
        <ele>1009.0410156</ele>
        <time>2011-11-29T09:44:40Z</time>
      </trkpt>
      <trkpt lat="44.41913" lon="6.12503">
        <ele>1009.5217285</ele>
        <time>2011-11-29T09:44:48Z</time>
      </trkpt>
      <trkpt lat="44.41902" lon="6.12476">
        <ele>1010.963623</ele>
        <time>2011-11-29T09:45:05Z</time>
      </trkpt>
      <trkpt lat="44.41899" lon="6.12472">
        <ele>1010.963623</ele>
        <time>2011-11-29T09:45:09Z</time>
      </trkpt>
      <trkpt lat="44.41895" lon="6.12465">
        <ele>1010.963623</ele>
        <time>2011-11-29T09:45:13Z</time>
      </trkpt>
      <trkpt lat="44.41887" lon="6.12434">
        <ele>1010.963623</ele>
        <time>2011-11-29T09:45:25Z</time>
      </trkpt>
      <trkpt lat="44.41881" lon="6.12419">
        <ele>1011.4443359</ele>
        <time>2011-11-29T09:45:37Z</time>
      </trkpt>
      <trkpt lat="44.41867" lon="6.12384">
        <ele>1011.9250488</ele>
        <time>2011-11-29T09:45:52Z</time>
      </trkpt>
      <trkpt lat="44.41862" lon="6.12365">
        <ele>1011.9250488</ele>
        <time>2011-11-29T09:46:00Z</time>
      </trkpt>
      <trkpt lat="44.41882" lon="6.12339">
        <ele>1012.8862305</ele>
        <time>2011-11-29T09:46:17Z</time>
      </trkpt>
      <trkpt lat="44.41891" lon="6.12325">
        <ele>1013.3669434</ele>
        <time>2011-11-29T09:46:29Z</time>
      </trkpt>
      <trkpt lat="44.41878" lon="6.12306">
        <ele>1013.3669434</ele>
        <time>2011-11-29T09:46:42Z</time>
      </trkpt>
      <trkpt lat="44.41845" lon="6.12293">
        <ele>1014.8088379</ele>
        <time>2011-11-29T09:47:01Z</time>
      </trkpt>
      <trkpt lat="44.41822" lon="6.12277">
        <ele>1015.7702637</ele>
        <time>2011-11-29T09:47:17Z</time>
      </trkpt>
      <trkpt lat="44.41811" lon="6.1225">
        <ele>1016.7314453</ele>
        <time>2011-11-29T09:47:34Z</time>
      </trkpt>
      <trkpt lat="44.4179" lon="6.1221">
        <ele>1018.1733398</ele>
        <time>2011-11-29T09:47:49Z</time>
      </trkpt>
      <trkpt lat="44.41787" lon="6.1217">
        <ele>1018.6540527</ele>
        <time>2011-11-29T09:48:05Z</time>
      </trkpt>
      <trkpt lat="44.41797" lon="6.12144">
        <ele>1019.1347656</ele>
        <time>2011-11-29T09:48:16Z</time>
      </trkpt>
      <trkpt lat="44.41815" lon="6.12111">
        <ele>1020.0961914</ele>
        <time>2011-11-29T09:48:33Z</time>
      </trkpt>
      <trkpt lat="44.41838" lon="6.1208">
        <ele>1022.0187988</ele>
        <time>2011-11-29T09:48:53Z</time>
      </trkpt>
      <trkpt lat="44.41859" lon="6.12053">
        <ele>1022.4995117</ele>
        <time>2011-11-29T09:49:08Z</time>
      </trkpt>
      <trkpt lat="44.41879" lon="6.12022">
        <ele>1022.4995117</ele>
        <time>2011-11-29T09:49:23Z</time>
      </trkpt>
      <trkpt lat="44.4189" lon="6.1201">
        <ele>1022.0187988</ele>
        <time>2011-11-29T09:49:28Z</time>
      </trkpt>
      <trkpt lat="44.41886" lon="6.12">
        <ele>1022.0187988</ele>
        <time>2011-11-29T09:49:32Z</time>
      </trkpt>
      <trkpt lat="44.41866" lon="6.11987">
        <ele>1022.9802246</ele>
        <time>2011-11-29T09:49:44Z</time>
      </trkpt>
      <trkpt lat="44.41837" lon="6.11979">
        <ele>1023.4609375</ele>
        <time>2011-11-29T09:49:55Z</time>
      </trkpt>
      <trkpt lat="44.41797" lon="6.11948">
        <ele>1024.902832</ele>
        <time>2011-11-29T09:50:14Z</time>
      </trkpt>
      <trkpt lat="44.41759" lon="6.11925">
        <ele>1026.3447266</ele>
        <time>2011-11-29T09:50:31Z</time>
      </trkpt>
      <trkpt lat="44.4172" lon="6.11924">
        <ele>1028.7480469</ele>
        <time>2011-11-29T09:50:54Z</time>
      </trkpt>
      <trkpt lat="44.41693" lon="6.11919">
        <ele>1031.1513672</ele>
        <time>2011-11-29T09:51:14Z</time>
      </trkpt>
      <trkpt lat="44.41669" lon="6.11902">
        <ele>1033.5544434</ele>
        <time>2011-11-29T09:51:34Z</time>
      </trkpt>
      <trkpt lat="44.41652" lon="6.11872">
        <ele>1034.996582</ele>
        <time>2011-11-29T09:51:49Z</time>
      </trkpt>
      <trkpt lat="44.4164" lon="6.11843">
        <ele>1035.9577637</ele>
        <time>2011-11-29T09:52:02Z</time>
      </trkpt>
      <trkpt lat="44.4163" lon="6.11814">
        <ele>1037.8806152</ele>
        <time>2011-11-29T09:52:19Z</time>
      </trkpt>
      <trkpt lat="44.41627" lon="6.11797">
        <ele>1038.842041</ele>
        <time>2011-11-29T09:52:26Z</time>
      </trkpt>
      <trkpt lat="44.41627" lon="6.11793">
        <ele>1038.842041</ele>
        <time>2011-11-29T09:52:28Z</time>
      </trkpt>
      <trkpt lat="44.4163" lon="6.11788">
        <ele>1039.3225098</ele>
        <time>2011-11-29T09:52:32Z</time>
      </trkpt>
      <trkpt lat="44.41629" lon="6.11781">
        <ele>1039.8032227</ele>
        <time>2011-11-29T09:52:34Z</time>
      </trkpt>
      <trkpt lat="44.41632" lon="6.11774">
        <ele>1040.2839355</ele>
        <time>2011-11-29T09:52:39Z</time>
      </trkpt>
      <trkpt lat="44.4165" lon="6.11745">
        <ele>1042.206543</ele>
        <time>2011-11-29T09:52:59Z</time>
      </trkpt>
      <trkpt lat="44.4166" lon="6.1172">
        <ele>1044.1291504</ele>
        <time>2011-11-29T09:53:15Z</time>
      </trkpt>
      <trkpt lat="44.4168" lon="6.11694">
        <ele>1047.0129395</ele>
        <time>2011-11-29T09:53:35Z</time>
      </trkpt>
      <trkpt lat="44.41687" lon="6.11688">
        <ele>1047.4936523</ele>
        <time>2011-11-29T09:53:41Z</time>
      </trkpt>
      <trkpt lat="44.41707" lon="6.11678">
        <ele>1049.4162598</ele>
        <time>2011-11-29T09:53:58Z</time>
      </trkpt>
      <trkpt lat="44.41716" lon="6.11668">
        <ele>1051.3388672</ele>
        <time>2011-11-29T09:54:10Z</time>
      </trkpt>
      <trkpt lat="44.41722" lon="6.11662">
        <ele>1053.2617188</ele>
        <time>2011-11-29T09:54:22Z</time>
      </trkpt>
      <trkpt lat="44.41725" lon="6.11661">
        <ele>1054.2231445</ele>
        <time>2011-11-29T09:54:30Z</time>
      </trkpt>
      <trkpt lat="44.41735" lon="6.11659">
        <ele>1056.1455078</ele>
        <time>2011-11-29T09:54:41Z</time>
      </trkpt>
      <trkpt lat="44.41749" lon="6.11668">
        <ele>1058.0683594</ele>
        <time>2011-11-29T09:54:54Z</time>
      </trkpt>
      <trkpt lat="44.4176" lon="6.11675">
        <ele>1059.9907227</ele>
        <time>2011-11-29T09:55:07Z</time>
      </trkpt>
      <trkpt lat="44.41776" lon="6.11677">
        <ele>1061.4328613</ele>
        <time>2011-11-29T09:55:19Z</time>
      </trkpt>
      <trkpt lat="44.41787" lon="6.11679">
        <ele>1061.9135742</ele>
        <time>2011-11-29T09:55:23Z</time>
      </trkpt>
      <trkpt lat="44.41789" lon="6.11681">
        <ele>1061.9135742</ele>
        <time>2011-11-29T09:55:25Z</time>
      </trkpt>
      <trkpt lat="44.41795" lon="6.11674">
        <ele>1063.3554688</ele>
        <time>2011-11-29T09:55:33Z</time>
      </trkpt>
      <trkpt lat="44.41796" lon="6.11677">
        <ele>1063.8359375</ele>
        <time>2011-11-29T09:55:38Z</time>
      </trkpt>
      <trkpt lat="44.41804" lon="6.11677">
        <ele>1064.7973633</ele>
        <time>2011-11-29T09:55:47Z</time>
      </trkpt>
      <trkpt lat="44.4181" lon="6.11676">
        <ele>1066.7199707</ele>
        <time>2011-11-29T09:55:57Z</time>
      </trkpt>
      <trkpt lat="44.41818" lon="6.11676">
        <ele>1068.1621094</ele>
        <time>2011-11-29T09:56:10Z</time>
      </trkpt>
      <trkpt lat="44.41845" lon="6.11675">
        <ele>1070.0847168</ele>
        <time>2011-11-29T09:56:22Z</time>
      </trkpt>
      <trkpt lat="44.41859" lon="6.11674">
        <ele>1071.0461426</ele>
        <time>2011-11-29T09:56:31Z</time>
      </trkpt>
      <trkpt lat="44.41867" lon="6.11654">
        <ele>1072.4880371</ele>
        <time>2011-11-29T09:56:44Z</time>
      </trkpt>
      <trkpt lat="44.41874" lon="6.11655">
        <ele>1073.4494629</ele>
        <time>2011-11-29T09:56:49Z</time>
      </trkpt>
      <trkpt lat="44.41882" lon="6.11654">
        <ele>1073.9299316</ele>
        <time>2011-11-29T09:56:54Z</time>
      </trkpt>
      <trkpt lat="44.41895" lon="6.11646">
        <ele>1075.8525391</ele>
        <time>2011-11-29T09:57:07Z</time>
      </trkpt>
      <trkpt lat="44.41896" lon="6.11639">
        <ele>1076.333252</ele>
        <time>2011-11-29T09:57:13Z</time>
      </trkpt>
      <trkpt lat="44.41905" lon="6.11639">
        <ele>1077.2946777</ele>
        <time>2011-11-29T09:57:17Z</time>
      </trkpt>
      <trkpt lat="44.41907" lon="6.11636">
        <ele>1077.2946777</ele>
        <time>2011-11-29T09:57:20Z</time>
      </trkpt>
      <trkpt lat="44.41917" lon="6.11629">
        <ele>1078.7365723</ele>
        <time>2011-11-29T09:57:31Z</time>
      </trkpt>
      <trkpt lat="44.41934" lon="6.11624">
        <ele>1079.6977539</ele>
        <time>2011-11-29T09:57:44Z</time>
      </trkpt>
      <trkpt lat="44.41936" lon="6.11612">
        <ele>1080.6591797</ele>
        <time>2011-11-29T09:57:54Z</time>
      </trkpt>
      <trkpt lat="44.41939" lon="6.11606">
        <ele>1081.1398926</ele>
        <time>2011-11-29T09:57:57Z</time>
      </trkpt>
      <trkpt lat="44.41953" lon="6.11601">
        <ele>1082.5817871</ele>
        <time>2011-11-29T09:58:10Z</time>
      </trkpt>
      <trkpt lat="44.41958" lon="6.11601">
        <ele>1082.5817871</ele>
        <time>2011-11-29T09:58:14Z</time>
      </trkpt>
      <trkpt lat="44.41975" lon="6.11586">
        <ele>1085.4658203</ele>
        <time>2011-11-29T09:58:31Z</time>
      </trkpt>
      <trkpt lat="44.41982" lon="6.11553">
        <ele>1087.3884277</ele>
        <time>2011-11-29T09:58:48Z</time>
      </trkpt>
      <trkpt lat="44.41994" lon="6.11549">
        <ele>1088.3498535</ele>
        <time>2011-11-29T09:58:56Z</time>
      </trkpt>
      <trkpt lat="44.42002" lon="6.11535">
        <ele>1090.2724609</ele>
        <time>2011-11-29T09:59:11Z</time>
      </trkpt>
      <trkpt lat="44.42009" lon="6.11531">
        <ele>1091.2336426</ele>
        <time>2011-11-29T09:59:16Z</time>
      </trkpt>
      <trkpt lat="44.42009" lon="6.11509">
        <ele>1092.1950684</ele>
        <time>2011-11-29T09:59:30Z</time>
      </trkpt>
      <trkpt lat="44.41985" lon="6.11493">
        <ele>1095.0788574</ele>
        <time>2011-11-29T09:59:50Z</time>
      </trkpt>
      <trkpt lat="44.41968" lon="6.11495">
        <ele>1096.5209961</ele>
        <time>2011-11-29T10:00:02Z</time>
      </trkpt>
      <trkpt lat="44.41943" lon="6.11495">
        <ele>1098.9240723</ele>
        <time>2011-11-29T10:00:18Z</time>
      </trkpt>
      <trkpt lat="44.41918" lon="6.11484">
        <ele>1101.8083496</ele>
        <time>2011-11-29T10:00:38Z</time>
      </trkpt>
      <trkpt lat="44.41896" lon="6.11484">
        <ele>1103.2502441</ele>
        <time>2011-11-29T10:00:54Z</time>
      </trkpt>
      <trkpt lat="44.4189" lon="6.11483">
        <ele>1103.730957</ele>
        <time>2011-11-29T10:00:58Z</time>
      </trkpt>
      <trkpt lat="44.4187" lon="6.11442">
        <ele>1105.6535645</ele>
        <time>2011-11-29T10:01:17Z</time>
      </trkpt>
      <trkpt lat="44.41868" lon="6.11438">
        <ele>1105.6535645</ele>
        <time>2011-11-29T10:01:19Z</time>
      </trkpt>
      <trkpt lat="44.41862" lon="6.11416">
        <ele>1106.6147461</ele>
        <time>2011-11-29T10:01:31Z</time>
      </trkpt>
      <trkpt lat="44.41865" lon="6.11409">
        <ele>1107.5761719</ele>
        <time>2011-11-29T10:01:35Z</time>
      </trkpt>
      <trkpt lat="44.41866" lon="6.11406">
        <ele>1108.0568848</ele>
        <time>2011-11-29T10:01:37Z</time>
      </trkpt>
      <trkpt lat="44.41871" lon="6.11421">
        <ele>1108.5373535</ele>
        <time>2011-11-29T10:01:47Z</time>
      </trkpt>
      <trkpt lat="44.41874" lon="6.11429">
        <ele>1108.0568848</ele>
        <time>2011-11-29T10:01:51Z</time>
      </trkpt>
      <trkpt lat="44.41903" lon="6.11439">
        <ele>1109.4987793</ele>
        <time>2011-11-29T10:02:05Z</time>
      </trkpt>
      <trkpt lat="44.41918" lon="6.11443">
        <ele>1109.979248</ele>
        <time>2011-11-29T10:02:14Z</time>
      </trkpt>
      <trkpt lat="44.4192" lon="6.11444">
        <ele>1110.4599609</ele>
        <time>2011-11-29T10:02:18Z</time>
      </trkpt>
      <trkpt lat="44.41927" lon="6.11452">
        <ele>1110.4599609</ele>
        <time>2011-11-29T10:02:23Z</time>
      </trkpt>
      <trkpt lat="44.41949" lon="6.11444">
        <ele>1110.9406738</ele>
        <time>2011-11-29T10:02:35Z</time>
      </trkpt>
      <trkpt lat="44.41969" lon="6.11427">
        <ele>1111.9020996</ele>
        <time>2011-11-29T10:02:48Z</time>
      </trkpt>
      <trkpt lat="44.42" lon="6.11421">
        <ele>1112.3825684</ele>
        <time>2011-11-29T10:03:02Z</time>
      </trkpt>
      <trkpt lat="44.42029" lon="6.11426">
        <ele>1113.8244629</ele>
        <time>2011-11-29T10:03:17Z</time>
      </trkpt>
      <trkpt lat="44.42042" lon="6.11447">
        <ele>1114.3051758</ele>
        <time>2011-11-29T10:03:27Z</time>
      </trkpt>
      <trkpt lat="44.42126" lon="6.11498">
        <ele>1114.3051758</ele>
        <time>2011-11-29T10:03:39Z</time>
      </trkpt>
      <trkpt lat="44.42119" lon="6.11516">
        <ele>1116.7087402</ele>
        <time>2011-11-29T10:03:54Z</time>
      </trkpt>
      <trkpt lat="44.42119" lon="6.11527">
        <ele>1117.6699219</ele>
        <time>2011-11-29T10:03:59Z</time>
      </trkpt>
      <trkpt lat="44.42121" lon="6.1153">
        <ele>1117.6699219</ele>
        <time>2011-11-29T10:04:02Z</time>
      </trkpt>
      <trkpt lat="44.4213" lon="6.11534">
        <ele>1119.5927734</ele>
        <time>2011-11-29T10:04:14Z</time>
      </trkpt>
      <trkpt lat="44.42132" lon="6.11534">
        <ele>1120.0732422</ele>
        <time>2011-11-29T10:04:17Z</time>
      </trkpt>
      <trkpt lat="44.42137" lon="6.11527">
        <ele>1121.9958496</ele>
        <time>2011-11-29T10:04:28Z</time>
      </trkpt>
      <trkpt lat="44.42145" lon="6.11524">
        <ele>1123.918457</ele>
        <time>2011-11-29T10:04:43Z</time>
      </trkpt>
      <trkpt lat="44.42146" lon="6.1153">
        <ele>1125.3603516</ele>
        <time>2011-11-29T10:04:54Z</time>
      </trkpt>
      <trkpt lat="44.42146" lon="6.11537">
        <ele>1127.7636719</ele>
        <time>2011-11-29T10:05:10Z</time>
      </trkpt>
      <trkpt lat="44.42145" lon="6.11538">
        <ele>1127.7636719</ele>
        <time>2011-11-29T10:05:13Z</time>
      </trkpt>
      <trkpt lat="44.42147" lon="6.11542">
        <ele>1130.1669922</ele>
        <time>2011-11-29T10:05:26Z</time>
      </trkpt>
      <trkpt lat="44.42148" lon="6.11543">
        <ele>1130.1669922</ele>
        <time>2011-11-29T10:05:27Z</time>
      </trkpt>
      <trkpt lat="44.42149" lon="6.11566">
        <ele>1133.5317383</ele>
        <time>2011-11-29T10:05:47Z</time>
      </trkpt>
      <trkpt lat="44.42153" lon="6.11575">
        <ele>1134.973877</ele>
        <time>2011-11-29T10:06:01Z</time>
      </trkpt>
      <trkpt lat="44.42157" lon="6.11585">
        <ele>1136.8962402</ele>
        <time>2011-11-29T10:06:15Z</time>
      </trkpt>
      <trkpt lat="44.42159" lon="6.11586">
        <ele>1137.3769531</ele>
        <time>2011-11-29T10:06:17Z</time>
      </trkpt>
      <trkpt lat="44.42161" lon="6.11589">
        <ele>1137.857666</ele>
        <time>2011-11-29T10:06:22Z</time>
      </trkpt>
      <trkpt lat="44.42172" lon="6.11608">
        <ele>1140.2609863</ele>
        <time>2011-11-29T10:06:35Z</time>
      </trkpt>
      <trkpt lat="44.42177" lon="6.11634">
        <ele>1142.1835938</ele>
        <time>2011-11-29T10:06:50Z</time>
      </trkpt>
      <trkpt lat="44.42177" lon="6.11638">
        <ele>1142.1835938</ele>
        <time>2011-11-29T10:06:52Z</time>
      </trkpt>
      <trkpt lat="44.42176" lon="6.11648">
        <ele>1142.6643066</ele>
        <time>2011-11-29T10:06:57Z</time>
      </trkpt>
      <trkpt lat="44.42174" lon="6.11662">
        <ele>1143.6254883</ele>
        <time>2011-11-29T10:07:05Z</time>
      </trkpt>
      <trkpt lat="44.42174" lon="6.1168">
        <ele>1145.0673828</ele>
        <time>2011-11-29T10:07:15Z</time>
      </trkpt>
      <trkpt lat="44.42178" lon="6.1168">
        <ele>1145.5480957</ele>
        <time>2011-11-29T10:07:21Z</time>
      </trkpt>
      <trkpt lat="44.42187" lon="6.11661">
        <ele>1146.9899902</ele>
        <time>2011-11-29T10:07:29Z</time>
      </trkpt>
      <trkpt lat="44.42189" lon="6.11632">
        <ele>1148.4321289</ele>
        <time>2011-11-29T10:07:43Z</time>
      </trkpt>
      <trkpt lat="44.42189" lon="6.11626">
        <ele>1148.9128418</ele>
        <time>2011-11-29T10:07:46Z</time>
      </trkpt>
      <trkpt lat="44.42195" lon="6.11602">
        <ele>1150.8354492</ele>
        <time>2011-11-29T10:07:59Z</time>
      </trkpt>
      <trkpt lat="44.42192" lon="6.11579">
        <ele>1152.7580566</ele>
        <time>2011-11-29T10:08:11Z</time>
      </trkpt>
      <trkpt lat="44.42191" lon="6.11571">
        <ele>1152.7580566</ele>
        <time>2011-11-29T10:08:15Z</time>
      </trkpt>
      <trkpt lat="44.42183" lon="6.11549">
        <ele>1154.6806641</ele>
        <time>2011-11-29T10:08:28Z</time>
      </trkpt>
      <trkpt lat="44.42179" lon="6.11523">
        <ele>1157.0839844</ele>
        <time>2011-11-29T10:08:42Z</time>
      </trkpt>
      <trkpt lat="44.42183" lon="6.11492">
        <ele>1159.0065918</ele>
        <time>2011-11-29T10:08:58Z</time>
      </trkpt>
      <trkpt lat="44.42181" lon="6.11484">
        <ele>1159.9677734</ele>
        <time>2011-11-29T10:09:01Z</time>
      </trkpt>
      <trkpt lat="44.42172" lon="6.1144">
        <ele>1162.3710938</ele>
        <time>2011-11-29T10:09:22Z</time>
      </trkpt>
      <trkpt lat="44.42162" lon="6.114">
        <ele>1165.2553711</ele>
        <time>2011-11-29T10:09:43Z</time>
      </trkpt>
      <trkpt lat="44.42161" lon="6.11398">
        <ele>1165.2553711</ele>
        <time>2011-11-29T10:09:44Z</time>
      </trkpt>
      <trkpt lat="44.42147" lon="6.11375">
        <ele>1167.1779785</ele>
        <time>2011-11-29T10:09:59Z</time>
      </trkpt>
      <trkpt lat="44.4214" lon="6.11354">
        <ele>1170.5424805</ele>
        <time>2011-11-29T10:10:15Z</time>
      </trkpt>
      <trkpt lat="44.42142" lon="6.11325">
        <ele>1172.9458008</ele>
        <time>2011-11-29T10:10:30Z</time>
      </trkpt>
      <trkpt lat="44.42157" lon="6.113">
        <ele>1176.3103027</ele>
        <time>2011-11-29T10:10:48Z</time>
      </trkpt>
      <trkpt lat="44.42167" lon="6.11294">
        <ele>1177.7521973</ele>
        <time>2011-11-29T10:10:56Z</time>
      </trkpt>
      <trkpt lat="44.42168" lon="6.11291">
        <ele>1177.7521973</ele>
        <time>2011-11-29T10:10:58Z</time>
      </trkpt>
      <trkpt lat="44.42193" lon="6.11285">
        <ele>1181.1171875</ele>
        <time>2011-11-29T10:11:16Z</time>
      </trkpt>
      <trkpt lat="44.42195" lon="6.11284">
        <ele>1181.1171875</ele>
        <time>2011-11-29T10:11:18Z</time>
      </trkpt>
      <trkpt lat="44.422" lon="6.1128">
        <ele>1182.0783691</ele>
        <time>2011-11-29T10:11:23Z</time>
      </trkpt>
      <trkpt lat="44.4222" lon="6.11269">
        <ele>1184.4816895</ele>
        <time>2011-11-29T10:11:42Z</time>
      </trkpt>
      <trkpt lat="44.42222" lon="6.11271">
        <ele>1184.9624023</ele>
        <time>2011-11-29T10:11:43Z</time>
      </trkpt>
      <trkpt lat="44.42226" lon="6.11267">
        <ele>1185.4428711</ele>
        <time>2011-11-29T10:11:47Z</time>
      </trkpt>
      <trkpt lat="44.42242" lon="6.11268">
        <ele>1187.8461914</ele>
        <time>2011-11-29T10:11:58Z</time>
      </trkpt>
      <trkpt lat="44.42247" lon="6.11266">
        <ele>1188.8076172</ele>
        <time>2011-11-29T10:12:03Z</time>
      </trkpt>
      <trkpt lat="44.4226" lon="6.11265">
        <ele>1191.2106934</ele>
        <time>2011-11-29T10:12:16Z</time>
      </trkpt>
      <trkpt lat="44.42278" lon="6.11273">
        <ele>1193.1333008</ele>
        <time>2011-11-29T10:12:30Z</time>
      </trkpt>
      <trkpt lat="44.42293" lon="6.11277">
        <ele>1195.0559082</ele>
        <time>2011-11-29T10:12:42Z</time>
      </trkpt>
      <trkpt lat="44.42314" lon="6.11266">
        <ele>1197.9401855</ele>
        <time>2011-11-29T10:13:00Z</time>
      </trkpt>
      <trkpt lat="44.42317" lon="6.11264">
        <ele>1198.4206543</ele>
        <time>2011-11-29T10:13:03Z</time>
      </trkpt>
      <trkpt lat="44.42322" lon="6.1126">
        <ele>1198.9013672</ele>
        <time>2011-11-29T10:13:07Z</time>
      </trkpt>
      <trkpt lat="44.42336" lon="6.1125">
        <ele>1200.8239746</ele>
        <time>2011-11-29T10:13:20Z</time>
      </trkpt>
      <trkpt lat="44.42356" lon="6.11241">
        <ele>1203.2272949</ele>
        <time>2011-11-29T10:13:37Z</time>
      </trkpt>
      <trkpt lat="44.42375" lon="6.11242">
        <ele>1205.6306152</ele>
        <time>2011-11-29T10:13:51Z</time>
      </trkpt>
      <trkpt lat="44.42383" lon="6.11248">
        <ele>1206.5917969</ele>
        <time>2011-11-29T10:13:56Z</time>
      </trkpt>
      <trkpt lat="44.42406" lon="6.11266">
        <ele>1208.9951172</ele>
        <time>2011-11-29T10:14:11Z</time>
      </trkpt>
      <trkpt lat="44.4241" lon="6.1127">
        <ele>1209.9562988</ele>
        <time>2011-11-29T10:14:14Z</time>
      </trkpt>
      <trkpt lat="44.42429" lon="6.11287">
        <ele>1212.8405762</ele>
        <time>2011-11-29T10:14:30Z</time>
      </trkpt>
      <trkpt lat="44.42442" lon="6.11303">
        <ele>1214.7631836</ele>
        <time>2011-11-29T10:14:44Z</time>
      </trkpt>
      <trkpt lat="44.42447" lon="6.1131">
        <ele>1216.2050781</ele>
        <time>2011-11-29T10:14:51Z</time>
      </trkpt>
      <trkpt lat="44.42464" lon="6.11324">
        <ele>1218.1276855</ele>
        <time>2011-11-29T10:15:05Z</time>
      </trkpt>
      <trkpt lat="44.42473" lon="6.11333">
        <ele>1219.5698242</ele>
        <time>2011-11-29T10:15:16Z</time>
      </trkpt>
      <trkpt lat="44.4248" lon="6.11337">
        <ele>1220.050293</ele>
        <time>2011-11-29T10:15:20Z</time>
      </trkpt>
      <trkpt lat="44.42498" lon="6.11346">
        <ele>1222.9343262</ele>
        <time>2011-11-29T10:15:35Z</time>
      </trkpt>
      <trkpt lat="44.42513" lon="6.11354">
        <ele>1224.8569336</ele>
        <time>2011-11-29T10:15:47Z</time>
      </trkpt>
      <trkpt lat="44.42527" lon="6.11372">
        <ele>1227.2602539</ele>
        <time>2011-11-29T10:16:04Z</time>
      </trkpt>
      <trkpt lat="44.42532" lon="6.11379">
        <ele>1227.7407227</ele>
        <time>2011-11-29T10:16:09Z</time>
      </trkpt>
      <trkpt lat="44.4254" lon="6.11387">
        <ele>1228.7023926</ele>
        <time>2011-11-29T10:16:15Z</time>
      </trkpt>
      <trkpt lat="44.42547" lon="6.11395">
        <ele>1230.1442871</ele>
        <time>2011-11-29T10:16:19Z</time>
      </trkpt>
      <trkpt lat="44.42556" lon="6.11407">
        <ele>1231.1057129</ele>
        <time>2011-11-29T10:16:29Z</time>
      </trkpt>
      <trkpt lat="44.42566" lon="6.11421">
        <ele>1233.989502</ele>
        <time>2011-11-29T10:16:43Z</time>
      </trkpt>
      <trkpt lat="44.42584" lon="6.11433">
        <ele>1236.3928223</ele>
        <time>2011-11-29T10:16:58Z</time>
      </trkpt>
      <trkpt lat="44.42599" lon="6.11452">
        <ele>1239.2766113</ele>
        <time>2011-11-29T10:17:12Z</time>
      </trkpt>
      <trkpt lat="44.42612" lon="6.11465">
        <ele>1241.6799316</ele>
        <time>2011-11-29T10:17:27Z</time>
      </trkpt>
      <trkpt lat="44.42626" lon="6.11481">
        <ele>1244.0834961</ele>
        <time>2011-11-29T10:17:43Z</time>
      </trkpt>
      <trkpt lat="44.42627" lon="6.11484">
        <ele>1245.0446777</ele>
        <time>2011-11-29T10:17:45Z</time>
      </trkpt>
      <trkpt lat="44.42625" lon="6.11487">
        <ele>1245.0446777</ele>
        <time>2011-11-29T10:17:47Z</time>
      </trkpt>
      <trkpt lat="44.42614" lon="6.11485">
        <ele>1246.4868164</ele>
        <time>2011-11-29T10:17:57Z</time>
      </trkpt>
      <trkpt lat="44.42612" lon="6.11483">
        <ele>1246.9672852</ele>
        <time>2011-11-29T10:17:59Z</time>
      </trkpt>
      <trkpt lat="44.42599" lon="6.11472">
        <ele>1248.4091797</ele>
        <time>2011-11-29T10:18:09Z</time>
      </trkpt>
      <trkpt lat="44.42595" lon="6.11471">
        <ele>1249.3706055</ele>
        <time>2011-11-29T10:18:14Z</time>
      </trkpt>
      <trkpt lat="44.42579" lon="6.11458">
        <ele>1251.7739258</ele>
        <time>2011-11-29T10:18:27Z</time>
      </trkpt>
      <trkpt lat="44.42576" lon="6.11457">
        <ele>1252.2543945</ele>
        <time>2011-11-29T10:18:30Z</time>
      </trkpt>
      <trkpt lat="44.42575" lon="6.11454">
        <ele>1252.7351074</ele>
        <time>2011-11-29T10:18:32Z</time>
      </trkpt>
      <trkpt lat="44.42551" lon="6.11443">
        <ele>1255.6191406</ele>
        <time>2011-11-29T10:18:48Z</time>
      </trkpt>
      <trkpt lat="44.42548" lon="6.11443">
        <ele>1256.0996094</ele>
        <time>2011-11-29T10:18:51Z</time>
      </trkpt>
      <trkpt lat="44.42536" lon="6.11437">
        <ele>1258.0224609</ele>
        <time>2011-11-29T10:19:04Z</time>
      </trkpt>
      <trkpt lat="44.42535" lon="6.11436">
        <ele>1258.5029297</ele>
        <time>2011-11-29T10:19:06Z</time>
      </trkpt>
      <trkpt lat="44.4253" lon="6.11435">
        <ele>1258.9836426</ele>
        <time>2011-11-29T10:19:08Z</time>
      </trkpt>
      <trkpt lat="44.42511" lon="6.11429">
        <ele>1261.8679199</ele>
        <time>2011-11-29T10:19:25Z</time>
      </trkpt>
      <trkpt lat="44.42492" lon="6.11424">
        <ele>1264.2709961</ele>
        <time>2011-11-29T10:19:39Z</time>
      </trkpt>
      <trkpt lat="44.42488" lon="6.11424">
        <ele>1264.751709</ele>
        <time>2011-11-29T10:19:41Z</time>
      </trkpt>
      <trkpt lat="44.42485" lon="6.11423">
        <ele>1265.2324219</ele>
        <time>2011-11-29T10:19:44Z</time>
      </trkpt>
      <trkpt lat="44.42475" lon="6.11423">
        <ele>1266.1936035</ele>
        <time>2011-11-29T10:19:52Z</time>
      </trkpt>
      <trkpt lat="44.42466" lon="6.11421">
        <ele>1266.6743164</ele>
        <time>2011-11-29T10:19:58Z</time>
      </trkpt>
      <trkpt lat="44.42461" lon="6.1142">
        <ele>1266.6743164</ele>
        <time>2011-11-29T10:20:02Z</time>
      </trkpt>
      <trkpt lat="44.42443" lon="6.11417">
        <ele>1268.5969238</ele>
        <time>2011-11-29T10:20:18Z</time>
      </trkpt>
      <trkpt lat="44.4243" lon="6.11417">
        <ele>1270.0388184</ele>
        <time>2011-11-29T10:20:28Z</time>
      </trkpt>
      <trkpt lat="44.42423" lon="6.11413">
        <ele>1271.0002441</ele>
        <time>2011-11-29T10:20:33Z</time>
      </trkpt>
      <trkpt lat="44.42402" lon="6.11407">
        <ele>1273.4035645</ele>
        <time>2011-11-29T10:20:50Z</time>
      </trkpt>
      <trkpt lat="44.42385" lon="6.114">
        <ele>1276.2875977</ele>
        <time>2011-11-29T10:21:06Z</time>
      </trkpt>
      <trkpt lat="44.42383" lon="6.114">
        <ele>1276.2875977</ele>
        <time>2011-11-29T10:21:07Z</time>
      </trkpt>
      <trkpt lat="44.42364" lon="6.11406">
        <ele>1279.6520996</ele>
        <time>2011-11-29T10:21:22Z</time>
      </trkpt>
      <trkpt lat="44.4235" lon="6.1141">
        <ele>1282.0554199</ele>
        <time>2011-11-29T10:21:35Z</time>
      </trkpt>
      <trkpt lat="44.42342" lon="6.11407">
        <ele>1283.4973145</ele>
        <time>2011-11-29T10:21:43Z</time>
      </trkpt>
      <trkpt lat="44.4233" lon="6.11408">
        <ele>1285.4199219</ele>
        <time>2011-11-29T10:21:52Z</time>
      </trkpt>
      <trkpt lat="44.42325" lon="6.11412">
        <ele>1285.9006348</ele>
        <time>2011-11-29T10:21:57Z</time>
      </trkpt>
      <trkpt lat="44.42308" lon="6.11429">
        <ele>1289.2651367</ele>
        <time>2011-11-29T10:22:15Z</time>
      </trkpt>
      <trkpt lat="44.42307" lon="6.11431">
        <ele>1289.2651367</ele>
        <time>2011-11-29T10:22:17Z</time>
      </trkpt>
      <trkpt lat="44.42307" lon="6.11448">
        <ele>1292.1494141</ele>
        <time>2011-11-29T10:22:27Z</time>
      </trkpt>
      <trkpt lat="44.42314" lon="6.11453">
        <ele>1293.1105957</ele>
        <time>2011-11-29T10:22:40Z</time>
      </trkpt>
      <trkpt lat="44.42312" lon="6.11455">
        <ele>1295.513916</ele>
        <time>2011-11-29T10:23:40Z</time>
      </trkpt>
      <trkpt lat="44.42313" lon="6.11459">
        <ele>1295.0332031</ele>
        <time>2011-11-29T10:23:56Z</time>
      </trkpt>
      <trkpt lat="44.42311" lon="6.11463">
        <ele>1296.4753418</ele>
        <time>2011-11-29T10:24:27Z</time>
      </trkpt>
      <trkpt lat="44.4231" lon="6.11463">
        <ele>1297.4365234</ele>
        <time>2011-11-29T10:24:53Z</time>
      </trkpt>
      <trkpt lat="44.4231" lon="6.11463">
        <ele>1298.3977051</ele>
        <time>2011-11-29T10:25:15Z</time>
      </trkpt>
      <trkpt lat="44.42311" lon="6.11465">
        <ele>1298.878418</ele>
        <time>2011-11-29T10:25:27Z</time>
      </trkpt>
      <trkpt lat="44.42317" lon="6.11462">
        <ele>1299.8398438</ele>
        <time>2011-11-29T10:25:32Z</time>
      </trkpt>
      <trkpt lat="44.42335" lon="6.11459">
        <ele>1302.2429199</ele>
        <time>2011-11-29T10:25:46Z</time>
      </trkpt>
      <trkpt lat="44.42343" lon="6.11462">
        <ele>1304.1657715</ele>
        <time>2011-11-29T10:25:55Z</time>
      </trkpt>
      <trkpt lat="44.42357" lon="6.11463">
        <ele>1305.607666</ele>
        <time>2011-11-29T10:26:08Z</time>
      </trkpt>
      <trkpt lat="44.4236" lon="6.11465">
        <ele>1306.0881348</ele>
        <time>2011-11-29T10:26:11Z</time>
      </trkpt>
      <trkpt lat="44.42376" lon="6.11476">
        <ele>1308.0112305</ele>
        <time>2011-11-29T10:26:27Z</time>
      </trkpt>
      <trkpt lat="44.42392" lon="6.11483">
        <ele>1310.8950195</ele>
        <time>2011-11-29T10:26:43Z</time>
      </trkpt>
      <trkpt lat="44.42396" lon="6.1149">
        <ele>1311.8564453</ele>
        <time>2011-11-29T10:26:49Z</time>
      </trkpt>
      <trkpt lat="44.42398" lon="6.11497">
        <ele>1312.3369141</ele>
        <time>2011-11-29T10:26:53Z</time>
      </trkpt>
      <trkpt lat="44.42395" lon="6.11501">
        <ele>1312.817627</ele>
        <time>2011-11-29T10:26:57Z</time>
      </trkpt>
      <trkpt lat="44.42392" lon="6.11502">
        <ele>1313.7788086</ele>
        <time>2011-11-29T10:27:01Z</time>
      </trkpt>
      <trkpt lat="44.42381" lon="6.11507">
        <ele>1315.7016602</ele>
        <time>2011-11-29T10:27:12Z</time>
      </trkpt>
      <trkpt lat="44.42373" lon="6.11513">
        <ele>1316.6628418</ele>
        <time>2011-11-29T10:27:17Z</time>
      </trkpt>
      <trkpt lat="44.42369" lon="6.11518">
        <ele>1316.6628418</ele>
        <time>2011-11-29T10:27:21Z</time>
      </trkpt>
      <trkpt lat="44.42367" lon="6.11525">
        <ele>1317.6240234</ele>
        <time>2011-11-29T10:27:27Z</time>
      </trkpt>
      <trkpt lat="44.42362" lon="6.11543">
        <ele>1319.0661621</ele>
        <time>2011-11-29T10:27:38Z</time>
      </trkpt>
      <trkpt lat="44.4236" lon="6.11556">
        <ele>1319.546875</ele>
        <time>2011-11-29T10:27:46Z</time>
      </trkpt>
      <trkpt lat="44.42359" lon="6.1158">
        <ele>1321.4692383</ele>
        <time>2011-11-29T10:27:59Z</time>
      </trkpt>
      <trkpt lat="44.42359" lon="6.11592">
        <ele>1322.4306641</ele>
        <time>2011-11-29T10:28:06Z</time>
      </trkpt>
      <trkpt lat="44.42366" lon="6.11596">
        <ele>1323.3920898</ele>
        <time>2011-11-29T10:28:14Z</time>
      </trkpt>
      <trkpt lat="44.42371" lon="6.11577">
        <ele>1325.3146973</ele>
        <time>2011-11-29T10:28:26Z</time>
      </trkpt>
      <trkpt lat="44.42373" lon="6.11574">
        <ele>1326.276123</ele>
        <time>2011-11-29T10:28:29Z</time>
      </trkpt>
      <trkpt lat="44.42378" lon="6.11567">
        <ele>1327.2375488</ele>
        <time>2011-11-29T10:28:35Z</time>
      </trkpt>
      <trkpt lat="44.4238" lon="6.11566">
        <ele>1327.2375488</ele>
        <time>2011-11-29T10:28:37Z</time>
      </trkpt>
      <trkpt lat="44.42387" lon="6.11552">
        <ele>1328.6794434</ele>
        <time>2011-11-29T10:28:47Z</time>
      </trkpt>
      <trkpt lat="44.42392" lon="6.11554">
        <ele>1329.640625</ele>
        <time>2011-11-29T10:28:54Z</time>
      </trkpt>
      <trkpt lat="44.42394" lon="6.11573">
        <ele>1332.0439453</ele>
        <time>2011-11-29T10:29:07Z</time>
      </trkpt>
      <trkpt lat="44.42397" lon="6.11596">
        <ele>1334.4472656</ele>
        <time>2011-11-29T10:29:23Z</time>
      </trkpt>
      <trkpt lat="44.42399" lon="6.11601">
        <ele>1334.9279785</ele>
        <time>2011-11-29T10:29:27Z</time>
      </trkpt>
      <trkpt lat="44.42401" lon="6.11606">
        <ele>1335.8891602</ele>
        <time>2011-11-29T10:29:31Z</time>
      </trkpt>
      <trkpt lat="44.42403" lon="6.11613">
        <ele>1336.8503418</ele>
        <time>2011-11-29T10:29:38Z</time>
      </trkpt>
      <trkpt lat="44.4241" lon="6.11619">
        <ele>1337.3310547</ele>
        <time>2011-11-29T10:29:46Z</time>
      </trkpt>
      <trkpt lat="44.42414" lon="6.11625">
        <ele>1339.2536621</ele>
        <time>2011-11-29T10:29:56Z</time>
      </trkpt>
      <trkpt lat="44.42424" lon="6.11637">
        <ele>1341.1765137</ele>
        <time>2011-11-29T10:30:10Z</time>
      </trkpt>
      <trkpt lat="44.42436" lon="6.11653">
        <ele>1343.0991211</ele>
        <time>2011-11-29T10:30:25Z</time>
      </trkpt>
      <trkpt lat="44.42445" lon="6.11659">
        <ele>1346.4638672</ele>
        <time>2011-11-29T10:30:42Z</time>
      </trkpt>
      <trkpt lat="44.42449" lon="6.11663">
        <ele>1347.4250488</ele>
        <time>2011-11-29T10:30:49Z</time>
      </trkpt>
      <trkpt lat="44.42459" lon="6.11673">
        <ele>1349.8283691</ele>
        <time>2011-11-29T10:31:05Z</time>
      </trkpt>
      <trkpt lat="44.42466" lon="6.11676">
        <ele>1351.2702637</ele>
        <time>2011-11-29T10:31:12Z</time>
      </trkpt>
      <trkpt lat="44.42482" lon="6.11685">
        <ele>1353.1928711</ele>
        <time>2011-11-29T10:31:27Z</time>
      </trkpt>
      <trkpt lat="44.42492" lon="6.11686">
        <ele>1354.1542969</ele>
        <time>2011-11-29T10:31:40Z</time>
      </trkpt>
      <trkpt lat="44.42492" lon="6.11685">
        <ele>1355.5961914</ele>
        <time>2011-11-29T10:32:27Z</time>
      </trkpt>
      <trkpt lat="44.42493" lon="6.11696">
        <ele>1358.9609375</ele>
        <time>2011-11-29T10:34:29Z</time>
      </trkpt>
      <trkpt lat="44.42505" lon="6.11696">
        <ele>1361.8449707</ele>
        <time>2011-11-29T10:36:25Z</time>
      </trkpt>
      <trkpt lat="44.42532" lon="6.117">
        <ele>1363.2868652</ele>
        <time>2011-11-29T10:36:41Z</time>
      </trkpt>
      <trkpt lat="44.4257" lon="6.11722">
        <ele>1366.1706543</ele>
        <time>2011-11-29T10:37:06Z</time>
      </trkpt>
      <trkpt lat="44.42584" lon="6.11735">
        <ele>1369.5354004</ele>
        <time>2011-11-29T10:37:25Z</time>
      </trkpt>
      <trkpt lat="44.42601" lon="6.11752">
        <ele>1372.4194336</ele>
        <time>2011-11-29T10:37:44Z</time>
      </trkpt>
      <trkpt lat="44.42618" lon="6.11778">
        <ele>1375.7839355</ele>
        <time>2011-11-29T10:38:05Z</time>
      </trkpt>
      <trkpt lat="44.42626" lon="6.11794">
        <ele>1377.706543</ele>
        <time>2011-11-29T10:38:19Z</time>
      </trkpt>
      <trkpt lat="44.42643" lon="6.11826">
        <ele>1381.0712891</ele>
        <time>2011-11-29T10:38:42Z</time>
      </trkpt>
      <trkpt lat="44.42645" lon="6.1183">
        <ele>1381.5517578</ele>
        <time>2011-11-29T10:38:45Z</time>
      </trkpt>
      <trkpt lat="44.42644" lon="6.11833">
        <ele>1381.5517578</ele>
        <time>2011-11-29T10:38:47Z</time>
      </trkpt>
      <trkpt lat="44.42646" lon="6.1184">
        <ele>1382.0324707</ele>
        <time>2011-11-29T10:38:51Z</time>
      </trkpt>
      <trkpt lat="44.42651" lon="6.11842">
        <ele>1382.5131836</ele>
        <time>2011-11-29T10:38:54Z</time>
      </trkpt>
      <trkpt lat="44.42654" lon="6.11845">
        <ele>1382.9936523</ele>
        <time>2011-11-29T10:38:57Z</time>
      </trkpt>
      <trkpt lat="44.42656" lon="6.11845">
        <ele>1383.4743652</ele>
        <time>2011-11-29T10:39:16Z</time>
      </trkpt>
      <trkpt lat="44.4266" lon="6.11838">
        <ele>1384.435791</ele>
        <time>2011-11-29T10:39:49Z</time>
      </trkpt>
      <trkpt lat="44.42654" lon="6.11849">
        <ele>1384.9165039</ele>
        <time>2011-11-29T10:41:11Z</time>
      </trkpt>
      <trkpt lat="44.42654" lon="6.1185">
        <ele>1387.3195801</ele>
        <time>2011-11-29T10:44:00Z</time>
      </trkpt>
      <trkpt lat="44.42655" lon="6.11848">
        <ele>1388.28125</ele>
        <time>2011-11-29T10:44:42Z</time>
      </trkpt>
      <trkpt lat="44.42657" lon="6.11846">
        <ele>1388.7619629</ele>
        <time>2011-11-29T10:46:49Z</time>
      </trkpt>
      <trkpt lat="44.42664" lon="6.11857">
        <ele>1389.7231445</ele>
        <time>2011-11-29T10:47:05Z</time>
      </trkpt>
      <trkpt lat="44.42687" lon="6.11881">
        <ele>1390.2038574</ele>
        <time>2011-11-29T10:47:23Z</time>
      </trkpt>
      <trkpt lat="44.42702" lon="6.11908">
        <ele>1391.645752</ele>
        <time>2011-11-29T10:47:40Z</time>
      </trkpt>
      <trkpt lat="44.42708" lon="6.11912">
        <ele>1392.1264648</ele>
        <time>2011-11-29T10:47:43Z</time>
      </trkpt>
      <trkpt lat="44.42721" lon="6.11934">
        <ele>1393.5683594</ele>
        <time>2011-11-29T10:47:56Z</time>
      </trkpt>
      <trkpt lat="44.4273" lon="6.1196">
        <ele>1395.4909668</ele>
        <time>2011-11-29T10:48:09Z</time>
      </trkpt>
      <trkpt lat="44.42729" lon="6.11967">
        <ele>1395.9716797</ele>
        <time>2011-11-29T10:48:14Z</time>
      </trkpt>
      <trkpt lat="44.42728" lon="6.11971">
        <ele>1395.9716797</ele>
        <time>2011-11-29T10:48:16Z</time>
      </trkpt>
      <trkpt lat="44.42716" lon="6.12017">
        <ele>1396.4523926</ele>
        <time>2011-11-29T10:48:30Z</time>
      </trkpt>
      <trkpt lat="44.42719" lon="6.12075">
        <ele>1393.5683594</ele>
        <time>2011-11-29T10:48:42Z</time>
      </trkpt>
      <trkpt lat="44.42715" lon="6.12116">
        <ele>1395.0102539</ele>
        <time>2011-11-29T10:48:52Z</time>
      </trkpt>
      <trkpt lat="44.4271" lon="6.12136">
        <ele>1396.4523926</ele>
        <time>2011-11-29T10:49:01Z</time>
      </trkpt>
      <trkpt lat="44.42707" lon="6.12141">
        <ele>1396.9328613</ele>
        <time>2011-11-29T10:49:04Z</time>
      </trkpt>
      <trkpt lat="44.42703" lon="6.12154">
        <ele>1397.4135742</ele>
        <time>2011-11-29T10:49:08Z</time>
      </trkpt>
      <trkpt lat="44.42699" lon="6.12203">
        <ele>1395.9716797</ele>
        <time>2011-11-29T10:49:22Z</time>
      </trkpt>
      <trkpt lat="44.42675" lon="6.12252">
        <ele>1398.3747559</ele>
        <time>2011-11-29T10:49:36Z</time>
      </trkpt>
      <trkpt lat="44.42663" lon="6.12282">
        <ele>1400.2976074</ele>
        <time>2011-11-29T10:49:49Z</time>
      </trkpt>
      <trkpt lat="44.42661" lon="6.12316">
        <ele>1400.7780762</ele>
        <time>2011-11-29T10:50:01Z</time>
      </trkpt>
      <trkpt lat="44.42677" lon="6.12374">
        <ele>1400.2976074</ele>
        <time>2011-11-29T10:50:13Z</time>
      </trkpt>
      <trkpt lat="44.42696" lon="6.12415">
        <ele>1398.8554688</ele>
        <time>2011-11-29T10:50:23Z</time>
      </trkpt>
      <trkpt lat="44.42722" lon="6.12433">
        <ele>1397.4135742</ele>
        <time>2011-11-29T10:50:31Z</time>
      </trkpt>
      <trkpt lat="44.42736" lon="6.12451">
        <ele>1396.4523926</ele>
        <time>2011-11-29T10:50:36Z</time>
      </trkpt>
      <trkpt lat="44.42736" lon="6.12468">
        <ele>1395.9716797</ele>
        <time>2011-11-29T10:50:39Z</time>
      </trkpt>
      <trkpt lat="44.42737" lon="6.12479">
        <ele>1395.9716797</ele>
        <time>2011-11-29T10:50:41Z</time>
      </trkpt>
      <trkpt lat="44.4274" lon="6.12491">
        <ele>1395.4909668</ele>
        <time>2011-11-29T10:50:43Z</time>
      </trkpt>
      <trkpt lat="44.42765" lon="6.12551">
        <ele>1393.5683594</ele>
        <time>2011-11-29T10:50:56Z</time>
      </trkpt>
      <trkpt lat="44.42779" lon="6.1258">
        <ele>1392.1264648</ele>
        <time>2011-11-29T10:51:10Z</time>
      </trkpt>
      <trkpt lat="44.42781" lon="6.12588">
        <ele>1391.645752</ele>
        <time>2011-11-29T10:51:12Z</time>
      </trkpt>
      <trkpt lat="44.42785" lon="6.12602">
        <ele>1390.6843262</ele>
        <time>2011-11-29T10:51:17Z</time>
      </trkpt>
      <trkpt lat="44.42793" lon="6.12651">
        <ele>1389.2424316</ele>
        <time>2011-11-29T10:51:29Z</time>
      </trkpt>
      <trkpt lat="44.42806" lon="6.12703">
        <ele>1385.3969727</ele>
        <time>2011-11-29T10:51:42Z</time>
      </trkpt>
      <trkpt lat="44.42821" lon="6.12753">
        <ele>1384.435791</ele>
        <time>2011-11-29T10:51:53Z</time>
      </trkpt>
      <trkpt lat="44.42827" lon="6.12778">
        <ele>1382.9936523</ele>
        <time>2011-11-29T10:51:58Z</time>
      </trkpt>
      <trkpt lat="44.42831" lon="6.12788">
        <ele>1382.0324707</ele>
        <time>2011-11-29T10:52:01Z</time>
      </trkpt>
      <trkpt lat="44.42843" lon="6.12797">
        <ele>1381.0712891</ele>
        <time>2011-11-29T10:52:06Z</time>
      </trkpt>
      <trkpt lat="44.42851" lon="6.12803">
        <ele>1380.5905762</ele>
        <time>2011-11-29T10:52:09Z</time>
      </trkpt>
      <trkpt lat="44.42878" lon="6.12808">
        <ele>1379.1484375</ele>
        <time>2011-11-29T10:52:17Z</time>
      </trkpt>
      <trkpt lat="44.42893" lon="6.12814">
        <ele>1378.6679688</ele>
        <time>2011-11-29T10:52:21Z</time>
      </trkpt>
      <trkpt lat="44.4294" lon="6.12844">
        <ele>1376.2646484</ele>
        <time>2011-11-29T10:52:35Z</time>
      </trkpt>
      <trkpt lat="44.42942" lon="6.12861">
        <ele>1375.7839355</ele>
        <time>2011-11-29T10:52:37Z</time>
      </trkpt>
      <trkpt lat="44.4295" lon="6.12859">
        <ele>1375.3032227</ele>
        <time>2011-11-29T10:52:38Z</time>
      </trkpt>
      <trkpt lat="44.4297" lon="6.12909">
        <ele>1372.9001465</ele>
        <time>2011-11-29T10:52:49Z</time>
      </trkpt>
      <trkpt lat="44.42975" lon="6.12915">
        <ele>1372.4194336</ele>
        <time>2011-11-29T10:52:51Z</time>
      </trkpt>
      <trkpt lat="44.43011" lon="6.12913">
        <ele>1370.9772949</ele>
        <time>2011-11-29T10:53:02Z</time>
      </trkpt>
      <trkpt lat="44.43016" lon="6.12913">
        <ele>1370.9772949</ele>
        <time>2011-11-29T10:53:04Z</time>
      </trkpt>
      <trkpt lat="44.43022" lon="6.12913">
        <ele>1370.496582</ele>
        <time>2011-11-29T10:53:07Z</time>
      </trkpt>
      <trkpt lat="44.43032" lon="6.12913">
        <ele>1369.5354004</ele>
        <time>2011-11-29T10:53:11Z</time>
      </trkpt>
      <trkpt lat="44.43066" lon="6.12885">
        <ele>1367.1320801</ele>
        <time>2011-11-29T10:53:25Z</time>
      </trkpt>
      <trkpt lat="44.43081" lon="6.12847">
        <ele>1365.2094727</ele>
        <time>2011-11-29T10:53:37Z</time>
      </trkpt>
      <trkpt lat="44.43099" lon="6.12788">
        <ele>1363.2868652</ele>
        <time>2011-11-29T10:53:49Z</time>
      </trkpt>
      <trkpt lat="44.43101" lon="6.1277">
        <ele>1362.3254395</ele>
        <time>2011-11-29T10:53:54Z</time>
      </trkpt>
      <trkpt lat="44.43112" lon="6.12715">
        <ele>1364.2480469</ele>
        <time>2011-11-29T10:54:07Z</time>
      </trkpt>
      <trkpt lat="44.43115" lon="6.12705">
        <ele>1365.6901855</ele>
        <time>2011-11-29T10:54:12Z</time>
      </trkpt>
      <trkpt lat="44.43115" lon="6.12705">
        <ele>1365.6901855</ele>
        <time>2011-11-29T10:54:13Z</time>
      </trkpt>
      <trkpt lat="44.43122" lon="6.1267">
        <ele>1368.0932617</ele>
        <time>2011-11-29T10:54:27Z</time>
      </trkpt>
      <trkpt lat="44.43113" lon="6.12624">
        <ele>1370.0158691</ele>
        <time>2011-11-29T10:54:46Z</time>
      </trkpt>
      <trkpt lat="44.43105" lon="6.12598">
        <ele>1371.9384766</ele>
        <time>2011-11-29T10:55:03Z</time>
      </trkpt>
      <trkpt lat="44.43106" lon="6.12578">
        <ele>1373.3808594</ele>
        <time>2011-11-29T10:55:14Z</time>
      </trkpt>
      <trkpt lat="44.43118" lon="6.1256">
        <ele>1375.7839355</ele>
        <time>2011-11-29T10:55:31Z</time>
      </trkpt>
      <trkpt lat="44.43134" lon="6.1255">
        <ele>1378.1872559</ele>
        <time>2011-11-29T10:55:50Z</time>
      </trkpt>
      <trkpt lat="44.43152" lon="6.12541">
        <ele>1379.6291504</ele>
        <time>2011-11-29T10:56:02Z</time>
      </trkpt>
      <trkpt lat="44.43177" lon="6.1251">
        <ele>1381.0712891</ele>
        <time>2011-11-29T10:56:18Z</time>
      </trkpt>
      <trkpt lat="44.43203" lon="6.12503">
        <ele>1382.0324707</ele>
        <time>2011-11-29T10:56:31Z</time>
      </trkpt>
      <trkpt lat="44.43232" lon="6.12483">
        <ele>1382.9936523</ele>
        <time>2011-11-29T10:56:48Z</time>
      </trkpt>
      <trkpt lat="44.43248" lon="6.12467">
        <ele>1384.435791</ele>
        <time>2011-11-29T10:57:01Z</time>
      </trkpt>
      <trkpt lat="44.43258" lon="6.12456">
        <ele>1384.9165039</ele>
        <time>2011-11-29T10:57:18Z</time>
      </trkpt>
      <trkpt lat="44.43258" lon="6.12456">
        <ele>1385.3969727</ele>
        <time>2011-11-29T10:57:52Z</time>
      </trkpt>
      <trkpt lat="44.43258" lon="6.12456">
        <ele>1387.3195801</ele>
        <time>2011-11-29T10:59:00Z</time>
      </trkpt>
      <trkpt lat="44.43282" lon="6.12414">
        <ele>1390.6843262</ele>
        <time>2011-11-29T10:59:23Z</time>
      </trkpt>
      <trkpt lat="44.43282" lon="6.12414">
        <ele>1393.0876465</ele>
        <time>2011-11-29T10:59:45Z</time>
      </trkpt>
      <trkpt lat="44.43282" lon="6.12414">
        <ele>1393.5683594</ele>
        <time>2011-11-29T10:59:46Z</time>
      </trkpt>
      <trkpt lat="44.43282" lon="6.12414">
        <ele>1394.0490723</ele>
        <time>2011-11-29T10:59:51Z</time>
      </trkpt>
      <trkpt lat="44.43282" lon="6.12414">
        <ele>1394.529541</ele>
        <time>2011-11-29T10:59:57Z</time>
      </trkpt>
      <trkpt lat="44.43312" lon="6.12388">
        <ele>1396.9328613</ele>
        <time>2011-11-29T11:00:18Z</time>
      </trkpt>
      <trkpt lat="44.43312" lon="6.12388">
        <ele>1398.8554688</ele>
        <time>2011-11-29T11:00:34Z</time>
      </trkpt>
      <trkpt lat="44.43312" lon="6.12388">
        <ele>1400.2976074</ele>
        <time>2011-11-29T11:00:44Z</time>
      </trkpt>
      <trkpt lat="44.43312" lon="6.12388">
        <ele>1401.739502</ele>
        <time>2011-11-29T11:00:59Z</time>
      </trkpt>
      <trkpt lat="44.43352" lon="6.1234">
        <ele>1401.739502</ele>
        <time>2011-11-29T11:01:09Z</time>
      </trkpt>
      <trkpt lat="44.43362" lon="6.12345">
        <ele>1402.2199707</ele>
        <time>2011-11-29T11:01:16Z</time>
      </trkpt>
      <trkpt lat="44.43392" lon="6.12331">
        <ele>1404.1430664</ele>
        <time>2011-11-29T11:01:32Z</time>
      </trkpt>
      <trkpt lat="44.43413" lon="6.12319">
        <ele>1406.0654297</ele>
        <time>2011-11-29T11:01:48Z</time>
      </trkpt>
      <trkpt lat="44.43441" lon="6.12323">
        <ele>1410.3913574</ele>
        <time>2011-11-29T11:02:10Z</time>
      </trkpt>
      <trkpt lat="44.43442" lon="6.12323">
        <ele>1410.3913574</ele>
        <time>2011-11-29T11:02:11Z</time>
      </trkpt>
      <trkpt lat="44.4346" lon="6.12325">
        <ele>1410.3913574</ele>
        <time>2011-11-29T11:02:24Z</time>
      </trkpt>
      <trkpt lat="44.4345" lon="6.12315">
        <ele>1411.3527832</ele>
        <time>2011-11-29T11:02:35Z</time>
      </trkpt>
      <trkpt lat="44.43428" lon="6.12305">
        <ele>1414.2365723</ele>
        <time>2011-11-29T11:02:53Z</time>
      </trkpt>
      <trkpt lat="44.43416" lon="6.12302">
        <ele>1416.1591797</ele>
        <time>2011-11-29T11:03:08Z</time>
      </trkpt>
      <trkpt lat="44.43407" lon="6.12307">
        <ele>1417.1206055</ele>
        <time>2011-11-29T11:03:21Z</time>
      </trkpt>
      <trkpt lat="44.43403" lon="6.12305">
        <ele>1417.1206055</ele>
        <time>2011-11-29T11:03:25Z</time>
      </trkpt>
      <trkpt lat="44.43398" lon="6.12307">
        <ele>1418.0817871</ele>
        <time>2011-11-29T11:03:28Z</time>
      </trkpt>
      <trkpt lat="44.43391" lon="6.12304">
        <ele>1419.5239258</ele>
        <time>2011-11-29T11:03:34Z</time>
      </trkpt>
      <trkpt lat="44.43388" lon="6.123">
        <ele>1419.5239258</ele>
        <time>2011-11-29T11:03:37Z</time>
      </trkpt>
      <trkpt lat="44.43374" lon="6.12284">
        <ele>1421.9272461</ele>
        <time>2011-11-29T11:03:52Z</time>
      </trkpt>
      <trkpt lat="44.43364" lon="6.1228">
        <ele>1422.8886719</ele>
        <time>2011-11-29T11:04:01Z</time>
      </trkpt>
      <trkpt lat="44.43359" lon="6.12279">
        <ele>1423.8498535</ele>
        <time>2011-11-29T11:04:05Z</time>
      </trkpt>
      <trkpt lat="44.43347" lon="6.1226">
        <ele>1425.291748</ele>
        <time>2011-11-29T11:04:19Z</time>
      </trkpt>
      <trkpt lat="44.43342" lon="6.1225">
        <ele>1425.7724609</ele>
        <time>2011-11-29T11:04:25Z</time>
      </trkpt>
      <trkpt lat="44.43336" lon="6.12244">
        <ele>1426.2531738</ele>
        <time>2011-11-29T11:04:31Z</time>
      </trkpt>
      <trkpt lat="44.43318" lon="6.12269">
        <ele>1428.6564941</ele>
        <time>2011-11-29T11:04:48Z</time>
      </trkpt>
      <trkpt lat="44.43317" lon="6.1227">
        <ele>1429.1369629</ele>
        <time>2011-11-29T11:04:49Z</time>
      </trkpt>
      <trkpt lat="44.43314" lon="6.12282">
        <ele>1430.0983887</ele>
        <time>2011-11-29T11:04:56Z</time>
      </trkpt>
      <trkpt lat="44.4331" lon="6.12286">
        <ele>1430.0983887</ele>
        <time>2011-11-29T11:05:00Z</time>
      </trkpt>
      <trkpt lat="44.43305" lon="6.12284">
        <ele>1431.0598145</ele>
        <time>2011-11-29T11:05:05Z</time>
      </trkpt>
      <trkpt lat="44.43295" lon="6.12281">
        <ele>1432.0209961</ele>
        <time>2011-11-29T11:05:14Z</time>
      </trkpt>
      <trkpt lat="44.43291" lon="6.12279">
        <ele>1432.501709</ele>
        <time>2011-11-29T11:05:17Z</time>
      </trkpt>
      <trkpt lat="44.43272" lon="6.12273">
        <ele>1434.9050293</ele>
        <time>2011-11-29T11:05:32Z</time>
      </trkpt>
      <trkpt lat="44.43266" lon="6.12273">
        <ele>1435.385498</ele>
        <time>2011-11-29T11:05:36Z</time>
      </trkpt>
      <trkpt lat="44.43261" lon="6.12273">
        <ele>1435.8662109</ele>
        <time>2011-11-29T11:05:40Z</time>
      </trkpt>
      <trkpt lat="44.43246" lon="6.12296">
        <ele>1437.7890625</ele>
        <time>2011-11-29T11:05:55Z</time>
      </trkpt>
      <trkpt lat="44.43238" lon="6.1231">
        <ele>1438.7504883</ele>
        <time>2011-11-29T11:06:04Z</time>
      </trkpt>
      <trkpt lat="44.43217" lon="6.12325">
        <ele>1440.6728516</ele>
        <time>2011-11-29T11:06:24Z</time>
      </trkpt>
      <trkpt lat="44.43199" lon="6.1234">
        <ele>1443.0761719</ele>
        <time>2011-11-29T11:06:41Z</time>
      </trkpt>
      <trkpt lat="44.43185" lon="6.12356">
        <ele>1444.9987793</ele>
        <time>2011-11-29T11:06:56Z</time>
      </trkpt>
      <trkpt lat="44.43165" lon="6.12376">
        <ele>1448.3632813</ele>
        <time>2011-11-29T11:07:16Z</time>
      </trkpt>
      <trkpt lat="44.43156" lon="6.12379">
        <ele>1449.324707</ele>
        <time>2011-11-29T11:07:26Z</time>
      </trkpt>
      <trkpt lat="44.43154" lon="6.12371">
        <ele>1450.2861328</ele>
        <time>2011-11-29T11:07:32Z</time>
      </trkpt>
      <trkpt lat="44.43164" lon="6.12359">
        <ele>1451.7280273</ele>
        <time>2011-11-29T11:07:41Z</time>
      </trkpt>
      <trkpt lat="44.43175" lon="6.12345">
        <ele>1453.170166</ele>
        <time>2011-11-29T11:07:53Z</time>
      </trkpt>
      <trkpt lat="44.43185" lon="6.12327">
        <ele>1454.6120605</ele>
        <time>2011-11-29T11:08:06Z</time>
      </trkpt>
      <trkpt lat="44.43197" lon="6.12308">
        <ele>1456.534668</ele>
        <time>2011-11-29T11:08:22Z</time>
      </trkpt>
      <trkpt lat="44.43199" lon="6.12307">
        <ele>1456.534668</ele>
        <time>2011-11-29T11:08:24Z</time>
      </trkpt>
      <trkpt lat="44.43202" lon="6.12302">
        <ele>1457.0153809</ele>
        <time>2011-11-29T11:08:26Z</time>
      </trkpt>
      <trkpt lat="44.43214" lon="6.12284">
        <ele>1458.9379883</ele>
        <time>2011-11-29T11:08:41Z</time>
      </trkpt>
      <trkpt lat="44.43229" lon="6.12254">
        <ele>1460.8605957</ele>
        <time>2011-11-29T11:09:01Z</time>
      </trkpt>
      <trkpt lat="44.43229" lon="6.12241">
        <ele>1462.3024902</ele>
        <time>2011-11-29T11:09:09Z</time>
      </trkpt>
      <trkpt lat="44.43231" lon="6.12218">
        <ele>1464.2250977</ele>
        <time>2011-11-29T11:09:25Z</time>
      </trkpt>
      <trkpt lat="44.43249" lon="6.12208">
        <ele>1466.1477051</ele>
        <time>2011-11-29T11:09:41Z</time>
      </trkpt>
      <trkpt lat="44.43252" lon="6.12207">
        <ele>1466.1477051</ele>
        <time>2011-11-29T11:09:43Z</time>
      </trkpt>
      <trkpt lat="44.43264" lon="6.12196">
        <ele>1467.5895996</ele>
        <time>2011-11-29T11:09:57Z</time>
      </trkpt>
      <trkpt lat="44.4328" lon="6.12183">
        <ele>1469.9931641</ele>
        <time>2011-11-29T11:10:13Z</time>
      </trkpt>
      <trkpt lat="44.43291" lon="6.12168">
        <ele>1472.3964844</ele>
        <time>2011-11-29T11:10:27Z</time>
      </trkpt>
      <trkpt lat="44.43315" lon="6.12153">
        <ele>1474.7998047</ele>
        <time>2011-11-29T11:10:51Z</time>
      </trkpt>
      <trkpt lat="44.43333" lon="6.12132">
        <ele>1477.203125</ele>
        <time>2011-11-29T11:11:13Z</time>
      </trkpt>
      <trkpt lat="44.43334" lon="6.1213">
        <ele>1477.6835938</ele>
        <time>2011-11-29T11:11:16Z</time>
      </trkpt>
      <trkpt lat="44.43352" lon="6.121">
        <ele>1480.567627</ele>
        <time>2011-11-29T11:11:39Z</time>
      </trkpt>
      <trkpt lat="44.4337" lon="6.12109">
        <ele>1481.5288086</ele>
        <time>2011-11-29T11:11:56Z</time>
      </trkpt>
      <trkpt lat="44.43374" lon="6.12113">
        <ele>1482.0095215</ele>
        <time>2011-11-29T11:11:59Z</time>
      </trkpt>
      <trkpt lat="44.43392" lon="6.1213">
        <ele>1482.9707031</ele>
        <time>2011-11-29T11:12:16Z</time>
      </trkpt>
      <trkpt lat="44.43397" lon="6.12136">
        <ele>1483.451416</ele>
        <time>2011-11-29T11:12:22Z</time>
      </trkpt>
      <trkpt lat="44.43401" lon="6.12138">
        <ele>1483.9321289</ele>
        <time>2011-11-29T11:12:25Z</time>
      </trkpt>
      <trkpt lat="44.43403" lon="6.12122">
        <ele>1484.8937988</ele>
        <time>2011-11-29T11:12:37Z</time>
      </trkpt>
      <trkpt lat="44.43387" lon="6.12107">
        <ele>1486.8161621</ele>
        <time>2011-11-29T11:12:52Z</time>
      </trkpt>
      <trkpt lat="44.43377" lon="6.12093">
        <ele>1488.2583008</ele>
        <time>2011-11-29T11:13:04Z</time>
      </trkpt>
      <trkpt lat="44.43375" lon="6.12092">
        <ele>1488.2583008</ele>
        <time>2011-11-29T11:13:05Z</time>
      </trkpt>
      <trkpt lat="44.43364" lon="6.12082">
        <ele>1489.7001953</ele>
        <time>2011-11-29T11:13:16Z</time>
      </trkpt>
      <trkpt lat="44.43347" lon="6.1208">
        <ele>1491.6228027</ele>
        <time>2011-11-29T11:13:31Z</time>
      </trkpt>
      <trkpt lat="44.43341" lon="6.12089">
        <ele>1492.5842285</ele>
        <time>2011-11-29T11:13:39Z</time>
      </trkpt>
      <trkpt lat="44.43322" lon="6.121">
        <ele>1494.026123</ele>
        <time>2011-11-29T11:13:54Z</time>
      </trkpt>
      <trkpt lat="44.43319" lon="6.12099">
        <ele>1494.026123</ele>
        <time>2011-11-29T11:13:56Z</time>
      </trkpt>
      <trkpt lat="44.43316" lon="6.12101">
        <ele>1494.5065918</ele>
        <time>2011-11-29T11:13:59Z</time>
      </trkpt>
      <trkpt lat="44.43296" lon="6.12107">
        <ele>1496.4294434</ele>
        <time>2011-11-29T11:14:15Z</time>
      </trkpt>
      <trkpt lat="44.43278" lon="6.12114">
        <ele>1498.3518066</ele>
        <time>2011-11-29T11:14:32Z</time>
      </trkpt>
      <trkpt lat="44.43268" lon="6.12115">
        <ele>1499.3132324</ele>
        <time>2011-11-29T11:14:41Z</time>
      </trkpt>
      <trkpt lat="44.43252" lon="6.12123">
        <ele>1501.7167969</ele>
        <time>2011-11-29T11:14:56Z</time>
      </trkpt>
      <trkpt lat="44.43239" lon="6.12126">
        <ele>1503.1586914</ele>
        <time>2011-11-29T11:15:09Z</time>
      </trkpt>
      <trkpt lat="44.43215" lon="6.12136">
        <ele>1505.0812988</ele>
        <time>2011-11-29T11:15:28Z</time>
      </trkpt>
      <trkpt lat="44.43205" lon="6.1214">
        <ele>1506.0424805</ele>
        <time>2011-11-29T11:15:35Z</time>
      </trkpt>
      <trkpt lat="44.43187" lon="6.12149">
        <ele>1507.965332</ele>
        <time>2011-11-29T11:15:51Z</time>
      </trkpt>
      <trkpt lat="44.43175" lon="6.12166">
        <ele>1510.3684082</ele>
        <time>2011-11-29T11:16:08Z</time>
      </trkpt>
      <trkpt lat="44.43165" lon="6.12192">
        <ele>1511.8105469</ele>
        <time>2011-11-29T11:16:23Z</time>
      </trkpt>
      <trkpt lat="44.43162" lon="6.12199">
        <ele>1512.7717285</ele>
        <time>2011-11-29T11:16:27Z</time>
      </trkpt>
      <trkpt lat="44.4316" lon="6.12204">
        <ele>1512.7717285</ele>
        <time>2011-11-29T11:16:31Z</time>
      </trkpt>
      <trkpt lat="44.43153" lon="6.12218">
        <ele>1514.213623</ele>
        <time>2011-11-29T11:16:39Z</time>
      </trkpt>
      <trkpt lat="44.43145" lon="6.12229">
        <ele>1515.1750488</ele>
        <time>2011-11-29T11:16:48Z</time>
      </trkpt>
      <trkpt lat="44.4313" lon="6.12257">
        <ele>1518.059082</ele>
        <time>2011-11-29T11:17:14Z</time>
      </trkpt>
      <trkpt lat="44.43113" lon="6.12282">
        <ele>1520.9431152</ele>
        <time>2011-11-29T11:17:36Z</time>
      </trkpt>
      <trkpt lat="44.43109" lon="6.1229">
        <ele>1521.9042969</ele>
        <time>2011-11-29T11:17:42Z</time>
      </trkpt>
      <trkpt lat="44.43103" lon="6.12291">
        <ele>1522.3850098</ele>
        <time>2011-11-29T11:17:46Z</time>
      </trkpt>
      <trkpt lat="44.43099" lon="6.12288">
        <ele>1523.8269043</ele>
        <time>2011-11-29T11:17:52Z</time>
      </trkpt>
      <trkpt lat="44.43103" lon="6.12282">
        <ele>1524.3076172</ele>
        <time>2011-11-29T11:17:58Z</time>
      </trkpt>
      <trkpt lat="44.43119" lon="6.12265">
        <ele>1526.7109375</ele>
        <time>2011-11-29T11:18:15Z</time>
      </trkpt>
      <trkpt lat="44.43129" lon="6.12249">
        <ele>1527.6721191</ele>
        <time>2011-11-29T11:18:25Z</time>
      </trkpt>
      <trkpt lat="44.43135" lon="6.12237">
        <ele>1528.6335449</ele>
        <time>2011-11-29T11:18:32Z</time>
      </trkpt>
      <trkpt lat="44.43136" lon="6.12234">
        <ele>1528.6335449</ele>
        <time>2011-11-29T11:18:34Z</time>
      </trkpt>
      <trkpt lat="44.43143" lon="6.12221">
        <ele>1530.0754395</ele>
        <time>2011-11-29T11:18:43Z</time>
      </trkpt>
      <trkpt lat="44.43145" lon="6.12212">
        <ele>1530.5561523</ele>
        <time>2011-11-29T11:18:49Z</time>
      </trkpt>
      <trkpt lat="44.43151" lon="6.12183">
        <ele>1533.4401855</ele>
        <time>2011-11-29T11:19:09Z</time>
      </trkpt>
      <trkpt lat="44.43153" lon="6.12178">
        <ele>1533.4401855</ele>
        <time>2011-11-29T11:19:12Z</time>
      </trkpt>
      <trkpt lat="44.4316" lon="6.12159">
        <ele>1535.362793</ele>
        <time>2011-11-29T11:19:26Z</time>
      </trkpt>
      <trkpt lat="44.43161" lon="6.12148">
        <ele>1536.8046875</ele>
        <time>2011-11-29T11:19:34Z</time>
      </trkpt>
      <trkpt lat="44.43164" lon="6.12139">
        <ele>1537.2854004</ele>
        <time>2011-11-29T11:19:40Z</time>
      </trkpt>
      <trkpt lat="44.43177" lon="6.12119">
        <ele>1539.2080078</ele>
        <time>2011-11-29T11:19:57Z</time>
      </trkpt>
      <trkpt lat="44.43199" lon="6.12105">
        <ele>1540.6499023</ele>
        <time>2011-11-29T11:20:11Z</time>
      </trkpt>
      <trkpt lat="44.4321" lon="6.12085">
        <ele>1542.5727539</ele>
        <time>2011-11-29T11:20:25Z</time>
      </trkpt>
      <trkpt lat="44.43224" lon="6.12072">
        <ele>1544.0146484</ele>
        <time>2011-11-29T11:20:38Z</time>
      </trkpt>
      <trkpt lat="44.43227" lon="6.12066">
        <ele>1544.9758301</ele>
        <time>2011-11-29T11:20:46Z</time>
      </trkpt>
      <trkpt lat="44.4323" lon="6.12061">
        <ele>1546.4179688</ele>
        <time>2011-11-29T11:21:01Z</time>
      </trkpt>
      <trkpt lat="44.43241" lon="6.12045">
        <ele>1548.3405762</ele>
        <time>2011-11-29T11:21:17Z</time>
      </trkpt>
      <trkpt lat="44.43254" lon="6.12025">
        <ele>1550.2634277</ele>
        <time>2011-11-29T11:21:34Z</time>
      </trkpt>
      <trkpt lat="44.43259" lon="6.12002">
        <ele>1552.185791</ele>
        <time>2011-11-29T11:21:51Z</time>
      </trkpt>
      <trkpt lat="44.43255" lon="6.11966">
        <ele>1555.5505371</ele>
        <time>2011-11-29T11:22:14Z</time>
      </trkpt>
      <trkpt lat="44.43247" lon="6.1193">
        <ele>1556.9924316</ele>
        <time>2011-11-29T11:22:34Z</time>
      </trkpt>
      <trkpt lat="44.43246" lon="6.11929">
        <ele>1557.9538574</ele>
        <time>2011-11-29T11:22:35Z</time>
      </trkpt>
      <trkpt lat="44.43237" lon="6.11919">
        <ele>1558.9150391</ele>
        <time>2011-11-29T11:22:45Z</time>
      </trkpt>
      <trkpt lat="44.43235" lon="6.11918">
        <ele>1558.9150391</ele>
        <time>2011-11-29T11:22:47Z</time>
      </trkpt>
      <trkpt lat="44.43218" lon="6.11917">
        <ele>1560.3569336</ele>
        <time>2011-11-29T11:23:02Z</time>
      </trkpt>
      <trkpt lat="44.43197" lon="6.11925">
        <ele>1561.7990723</ele>
        <time>2011-11-29T11:23:19Z</time>
      </trkpt>
      <trkpt lat="44.43179" lon="6.11929">
        <ele>1563.7214355</ele>
        <time>2011-11-29T11:23:34Z</time>
      </trkpt>
      <trkpt lat="44.43162" lon="6.11933">
        <ele>1565.1638184</ele>
        <time>2011-11-29T11:23:48Z</time>
      </trkpt>
      <trkpt lat="44.43145" lon="6.11934">
        <ele>1566.6057129</ele>
        <time>2011-11-29T11:24:03Z</time>
      </trkpt>
      <trkpt lat="44.43131" lon="6.11936">
        <ele>1567.5668945</ele>
        <time>2011-11-29T11:24:12Z</time>
      </trkpt>
      <trkpt lat="44.43118" lon="6.11944">
        <ele>1568.5283203</ele>
        <time>2011-11-29T11:24:22Z</time>
      </trkpt>
      <trkpt lat="44.43095" lon="6.11945">
        <ele>1569.9702148</ele>
        <time>2011-11-29T11:24:40Z</time>
      </trkpt>
      <trkpt lat="44.43067" lon="6.11951">
        <ele>1572.854248</ele>
        <time>2011-11-29T11:25:02Z</time>
      </trkpt>
      <trkpt lat="44.43048" lon="6.11967">
        <ele>1574.2961426</ele>
        <time>2011-11-29T11:25:20Z</time>
      </trkpt>
      <trkpt lat="44.43029" lon="6.11985">
        <ele>1575.7380371</ele>
        <time>2011-11-29T11:25:38Z</time>
      </trkpt>
      <trkpt lat="44.43005" lon="6.12003">
        <ele>1577.6606445</ele>
        <time>2011-11-29T11:25:57Z</time>
      </trkpt>
      <trkpt lat="44.42984" lon="6.12013">
        <ele>1577.6606445</ele>
        <time>2011-11-29T11:26:16Z</time>
      </trkpt>
      <trkpt lat="44.42984" lon="6.12013">
        <ele>1578.1413574</ele>
        <time>2011-11-29T11:26:39Z</time>
      </trkpt>
      <trkpt lat="44.42983" lon="6.12014">
        <ele>1578.1413574</ele>
        <time>2011-11-29T11:27:21Z</time>
      </trkpt>
      <trkpt lat="44.42983" lon="6.12014">
        <ele>1579.1025391</ele>
        <time>2011-11-29T11:28:08Z</time>
      </trkpt>
      <trkpt lat="44.42983" lon="6.12013">
        <ele>1580.064209</ele>
        <time>2011-11-29T11:29:12Z</time>
      </trkpt>
      <trkpt lat="44.42983" lon="6.12013">
        <ele>1580.064209</ele>
        <time>2011-11-29T11:29:33Z</time>
      </trkpt>
      <trkpt lat="44.42982" lon="6.12013">
        <ele>1579.583252</ele>
        <time>2011-11-29T11:29:52Z</time>
      </trkpt>
      <trkpt lat="44.42981" lon="6.12014">
        <ele>1580.064209</ele>
        <time>2011-11-29T11:30:18Z</time>
      </trkpt>
      <trkpt lat="44.42986" lon="6.12013">
        <ele>1580.064209</ele>
        <time>2011-11-29T11:30:47Z</time>
      </trkpt>
      <trkpt lat="44.42983" lon="6.12013">
        <ele>1580.064209</ele>
        <time>2011-11-29T11:31:20Z</time>
      </trkpt>
      <trkpt lat="44.42977" lon="6.12017">
        <ele>1580.5449219</ele>
        <time>2011-11-29T11:31:35Z</time>
      </trkpt>
      <trkpt lat="44.42969" lon="6.12018">
        <ele>1580.064209</ele>
        <time>2011-11-29T11:31:53Z</time>
      </trkpt>
      <trkpt lat="44.42963" lon="6.12012">
        <ele>1579.1025391</ele>
        <time>2011-11-29T11:32:08Z</time>
      </trkpt>
      <trkpt lat="44.4296" lon="6.1201">
        <ele>1579.1025391</ele>
        <time>2011-11-29T11:32:31Z</time>
      </trkpt>
      <trkpt lat="44.42953" lon="6.12011">
        <ele>1577.1801758</ele>
        <time>2011-11-29T11:33:15Z</time>
      </trkpt>
      <trkpt lat="44.42959" lon="6.12008">
        <ele>1579.583252</ele>
        <time>2011-11-29T11:33:32Z</time>
      </trkpt>
      <trkpt lat="44.4296" lon="6.12008">
        <ele>1578.6220703</ele>
        <time>2011-11-29T11:33:45Z</time>
      </trkpt>
      <trkpt lat="44.42961" lon="6.12008">
        <ele>1578.6220703</ele>
        <time>2011-11-29T11:33:54Z</time>
      </trkpt>
      <trkpt lat="44.42965" lon="6.12013">
        <ele>1580.064209</ele>
        <time>2011-11-29T11:34:01Z</time>
      </trkpt>
      <trkpt lat="44.42971" lon="6.12015">
        <ele>1580.5449219</ele>
        <time>2011-11-29T11:34:11Z</time>
      </trkpt>
      <trkpt lat="44.42978" lon="6.12011">
        <ele>1581.5061035</ele>
        <time>2011-11-29T11:34:24Z</time>
      </trkpt>
      <trkpt lat="44.42975" lon="6.12015">
        <ele>1581.0256348</ele>
        <time>2011-11-29T11:34:33Z</time>
      </trkpt>
      <trkpt lat="44.4296" lon="6.12013">
        <ele>1580.064209</ele>
        <time>2011-11-29T11:34:50Z</time>
      </trkpt>
      <trkpt lat="44.4296" lon="6.1201">
        <ele>1580.064209</ele>
        <time>2011-11-29T11:35:10Z</time>
      </trkpt>
      <trkpt lat="44.42961" lon="6.1201">
        <ele>1579.1025391</ele>
        <time>2011-11-29T11:35:38Z</time>
      </trkpt>
      <trkpt lat="44.42959" lon="6.12009">
        <ele>1581.5061035</ele>
        <time>2011-11-29T11:51:36Z</time>
      </trkpt>
      <trkpt lat="44.42959" lon="6.1201">
        <ele>1581.9868164</ele>
        <time>2011-11-29T12:03:08Z</time>
      </trkpt>
      <trkpt lat="44.42957" lon="6.1201">
        <ele>1582.4675293</ele>
        <time>2011-11-29T12:08:00Z</time>
      </trkpt>
      <trkpt lat="44.42957" lon="6.1201">
        <ele>1582.947998</ele>
        <time>2011-11-29T12:09:11Z</time>
      </trkpt>
      <trkpt lat="44.42958" lon="6.12013">
        <ele>1583.4287109</ele>
        <time>2011-11-29T12:09:39Z</time>
      </trkpt>
      <trkpt lat="44.42958" lon="6.12013">
        <ele>1583.4287109</ele>
        <time>2011-11-29T12:09:43Z</time>
      </trkpt>
      <trkpt lat="44.42967" lon="6.12017">
        <ele>1583.4287109</ele>
        <time>2011-11-29T12:09:59Z</time>
      </trkpt>
      <trkpt lat="44.42977" lon="6.12015">
        <ele>1584.3901367</ele>
        <time>2011-11-29T12:10:14Z</time>
      </trkpt>
      <trkpt lat="44.4298" lon="6.12013">
        <ele>1584.3901367</ele>
        <time>2011-11-29T12:10:26Z</time>
      </trkpt>
      <trkpt lat="44.4298" lon="6.12015">
        <ele>1584.3901367</ele>
        <time>2011-11-29T12:10:55Z</time>
      </trkpt>
      <trkpt lat="44.42978" lon="6.1202">
        <ele>1584.8708496</ele>
        <time>2011-11-29T12:11:10Z</time>
      </trkpt>
      <trkpt lat="44.42981" lon="6.12016">
        <ele>1584.8708496</ele>
        <time>2011-11-29T12:11:49Z</time>
      </trkpt>
      <trkpt lat="44.42984" lon="6.12011">
        <ele>1585.3513184</ele>
        <time>2011-11-29T12:12:07Z</time>
      </trkpt>
      <trkpt lat="44.42985" lon="6.1201">
        <ele>1584.8708496</ele>
        <time>2011-11-29T12:12:08Z</time>
      </trkpt>
      <trkpt lat="44.42991" lon="6.12005">
        <ele>1585.3513184</ele>
        <time>2011-11-29T12:12:27Z</time>
      </trkpt>
      <trkpt lat="44.42993" lon="6.12003">
        <ele>1585.3513184</ele>
        <time>2011-11-29T12:12:30Z</time>
      </trkpt>
      <trkpt lat="44.43004" lon="6.11999">
        <ele>1585.3513184</ele>
        <time>2011-11-29T12:12:50Z</time>
      </trkpt>
      <trkpt lat="44.43005" lon="6.11999">
        <ele>1583.9094238</ele>
        <time>2011-11-29T12:14:32Z</time>
      </trkpt>
      <trkpt lat="44.43005" lon="6.11999">
        <ele>1585.8320313</ele>
        <time>2011-11-29T12:14:34Z</time>
      </trkpt>
      <trkpt lat="44.43024" lon="6.1199">
        <ele>1584.3901367</ele>
        <time>2011-11-29T12:15:18Z</time>
      </trkpt>
      <trkpt lat="44.43051" lon="6.11968">
        <ele>1582.947998</ele>
        <time>2011-11-29T12:15:31Z</time>
      </trkpt>
      <trkpt lat="44.43076" lon="6.11942">
        <ele>1581.5061035</ele>
        <time>2011-11-29T12:15:42Z</time>
      </trkpt>
      <trkpt lat="44.43102" lon="6.11938">
        <ele>1579.1025391</ele>
        <time>2011-11-29T12:15:49Z</time>
      </trkpt>
      <trkpt lat="44.4311" lon="6.11938">
        <ele>1577.1801758</ele>
        <time>2011-11-29T12:15:58Z</time>
      </trkpt>
      <trkpt lat="44.43119" lon="6.11937">
        <ele>1576.6994629</ele>
        <time>2011-11-29T12:15:59Z</time>
      </trkpt>
      <trkpt lat="44.43146" lon="6.11936">
        <ele>1575.2573242</ele>
        <time>2011-11-29T12:16:07Z</time>
      </trkpt>
      <trkpt lat="44.4315" lon="6.11935">
        <ele>1573.3349609</ele>
        <time>2011-11-29T12:16:10Z</time>
      </trkpt>
      <trkpt lat="44.4318" lon="6.11931">
        <ele>1569.9702148</ele>
        <time>2011-11-29T12:16:22Z</time>
      </trkpt>
      <trkpt lat="44.43221" lon="6.11912">
        <ele>1569.0090332</ele>
        <time>2011-11-29T12:16:29Z</time>
      </trkpt>
      <trkpt lat="44.43243" lon="6.11926">
        <ele>1567.5668945</ele>
        <time>2011-11-29T12:16:37Z</time>
      </trkpt>
      <trkpt lat="44.43251" lon="6.11946">
        <ele>1566.125</ele>
        <time>2011-11-29T12:16:43Z</time>
      </trkpt>
      <trkpt lat="44.43257" lon="6.11992">
        <ele>1563.7214355</ele>
        <time>2011-11-29T12:16:55Z</time>
      </trkpt>
      <trkpt lat="44.43247" lon="6.12021">
        <ele>1561.3183594</ele>
        <time>2011-11-29T12:17:05Z</time>
      </trkpt>
      <trkpt lat="44.43246" lon="6.12022">
        <ele>1560.8376465</ele>
        <time>2011-11-29T12:17:06Z</time>
      </trkpt>
      <trkpt lat="44.43213" lon="6.12046">
        <ele>1557.4731445</ele>
        <time>2011-11-29T12:17:16Z</time>
      </trkpt>
      <trkpt lat="44.43187" lon="6.12065">
        <ele>1554.1086426</ele>
        <time>2011-11-29T12:17:23Z</time>
      </trkpt>
      <trkpt lat="44.43183" lon="6.12068">
        <ele>1554.1086426</ele>
        <time>2011-11-29T12:17:24Z</time>
      </trkpt>
      <trkpt lat="44.43167" lon="6.12087">
        <ele>1550.7438965</ele>
        <time>2011-11-29T12:17:32Z</time>
      </trkpt>
      <trkpt lat="44.43164" lon="6.12091">
        <ele>1549.7827148</ele>
        <time>2011-11-29T12:17:36Z</time>
      </trkpt>
      <trkpt lat="44.43158" lon="6.12098">
        <ele>1549.302002</ele>
        <time>2011-11-29T12:17:38Z</time>
      </trkpt>
      <trkpt lat="44.43153" lon="6.12105">
        <ele>1547.3791504</ele>
        <time>2011-11-29T12:17:43Z</time>
      </trkpt>
      <trkpt lat="44.43143" lon="6.1213">
        <ele>1545.9372559</ele>
        <time>2011-11-29T12:17:49Z</time>
      </trkpt>
      <trkpt lat="44.43141" lon="6.12147">
        <ele>1544.4951172</ele>
        <time>2011-11-29T12:17:52Z</time>
      </trkpt>
      <trkpt lat="44.43134" lon="6.12192">
        <ele>1541.6113281</ele>
        <time>2011-11-29T12:18:00Z</time>
      </trkpt>
      <trkpt lat="44.43133" lon="6.12197">
        <ele>1541.1306152</ele>
        <time>2011-11-29T12:18:03Z</time>
      </trkpt>
      <trkpt lat="44.43116" lon="6.12247">
        <ele>1537.2854004</ele>
        <time>2011-11-29T12:18:13Z</time>
      </trkpt>
      <trkpt lat="44.43116" lon="6.12247">
        <ele>1536.8046875</ele>
        <time>2011-11-29T12:18:15Z</time>
      </trkpt>
      <trkpt lat="44.43103" lon="6.12238">
        <ele>1533.9208984</ele>
        <time>2011-11-29T12:18:25Z</time>
      </trkpt>
      <trkpt lat="44.43107" lon="6.12226">
        <ele>1532.9594727</ele>
        <time>2011-11-29T12:18:30Z</time>
      </trkpt>
      <trkpt lat="44.431" lon="6.12228">
        <ele>1530.0754395</ele>
        <time>2011-11-29T12:18:39Z</time>
      </trkpt>
      <trkpt lat="44.43098" lon="6.12225">
        <ele>1528.152832</ele>
        <time>2011-11-29T12:18:45Z</time>
      </trkpt>
      <trkpt lat="44.43075" lon="6.12209">
        <ele>1524.3076172</ele>
        <time>2011-11-29T12:18:57Z</time>
      </trkpt>
      <trkpt lat="44.43065" lon="6.12206">
        <ele>1521.423584</ele>
        <time>2011-11-29T12:19:05Z</time>
      </trkpt>
      <trkpt lat="44.43083" lon="6.12194">
        <ele>1518.5397949</ele>
        <time>2011-11-29T12:19:13Z</time>
      </trkpt>
      <trkpt lat="44.43128" lon="6.12177">
        <ele>1516.1364746</ele>
        <time>2011-11-29T12:19:20Z</time>
      </trkpt>
      <trkpt lat="44.43215" lon="6.12146">
        <ele>1513.2524414</ele>
        <time>2011-11-29T12:19:29Z</time>
      </trkpt>
      <trkpt lat="44.43284" lon="6.12119">
        <ele>1509.8876953</ele>
        <time>2011-11-29T12:19:39Z</time>
      </trkpt>
      <trkpt lat="44.43308" lon="6.12097">
        <ele>1507.965332</ele>
        <time>2011-11-29T12:19:47Z</time>
      </trkpt>
      <trkpt lat="44.43313" lon="6.12095">
        <ele>1507.0039063</ele>
        <time>2011-11-29T12:19:50Z</time>
      </trkpt>
      <trkpt lat="44.43326" lon="6.12097">
        <ele>1505.5620117</ele>
        <time>2011-11-29T12:19:54Z</time>
      </trkpt>
      <trkpt lat="44.43335" lon="6.12091">
        <ele>1503.6394043</ele>
        <time>2011-11-29T12:19:57Z</time>
      </trkpt>
      <trkpt lat="44.43391" lon="6.12119">
        <ele>1501.7167969</ele>
        <time>2011-11-29T12:20:03Z</time>
      </trkpt>
      <trkpt lat="44.43394" lon="6.12125">
        <ele>1501.236084</ele>
        <time>2011-11-29T12:20:08Z</time>
      </trkpt>
      <trkpt lat="44.43391" lon="6.12125">
        <ele>1500.7553711</ele>
        <time>2011-11-29T12:20:11Z</time>
      </trkpt>
      <trkpt lat="44.43381" lon="6.12116">
        <ele>1499.7939453</ele>
        <time>2011-11-29T12:20:17Z</time>
      </trkpt>
      <trkpt lat="44.4337" lon="6.12102">
        <ele>1498.8325195</ele>
        <time>2011-11-29T12:20:22Z</time>
      </trkpt>
      <trkpt lat="44.43342" lon="6.12115">
        <ele>1496.4294434</ele>
        <time>2011-11-29T12:20:30Z</time>
      </trkpt>
      <trkpt lat="44.43319" lon="6.12143">
        <ele>1494.026123</ele>
        <time>2011-11-29T12:20:38Z</time>
      </trkpt>
      <trkpt lat="44.43311" lon="6.12151">
        <ele>1492.5842285</ele>
        <time>2011-11-29T12:20:41Z</time>
      </trkpt>
      <trkpt lat="44.43289" lon="6.12168">
        <ele>1489.2194824</ele>
        <time>2011-11-29T12:20:47Z</time>
      </trkpt>
      <trkpt lat="44.43286" lon="6.12171">
        <ele>1489.2194824</ele>
        <time>2011-11-29T12:20:48Z</time>
      </trkpt>
      <trkpt lat="44.43263" lon="6.1219">
        <ele>1486.3356934</ele>
        <time>2011-11-29T12:20:56Z</time>
      </trkpt>
      <trkpt lat="44.43259" lon="6.12195">
        <ele>1485.8549805</ele>
        <time>2011-11-29T12:20:58Z</time>
      </trkpt>
      <trkpt lat="44.43247" lon="6.12205">
        <ele>1485.3742676</ele>
        <time>2011-11-29T12:21:01Z</time>
      </trkpt>
      <trkpt lat="44.43225" lon="6.12232">
        <ele>1482.0095215</ele>
        <time>2011-11-29T12:21:10Z</time>
      </trkpt>
      <trkpt lat="44.43216" lon="6.12268">
        <ele>1479.6062012</ele>
        <time>2011-11-29T12:21:18Z</time>
      </trkpt>
      <trkpt lat="44.43206" lon="6.12285">
        <ele>1477.6835938</ele>
        <time>2011-11-29T12:21:23Z</time>
      </trkpt>
      <trkpt lat="44.43187" lon="6.12321">
        <ele>1474.3190918</ele>
        <time>2011-11-29T12:21:31Z</time>
      </trkpt>
      <trkpt lat="44.43182" lon="6.12331">
        <ele>1473.3579102</ele>
        <time>2011-11-29T12:21:33Z</time>
      </trkpt>
      <trkpt lat="44.43163" lon="6.12362">
        <ele>1471.4350586</ele>
        <time>2011-11-29T12:21:40Z</time>
      </trkpt>
      <trkpt lat="44.43163" lon="6.12361">
        <ele>1470.473877</ele>
        <time>2011-11-29T12:21:44Z</time>
      </trkpt>
      <trkpt lat="44.43175" lon="6.12367">
        <ele>1467.5895996</ele>
        <time>2011-11-29T12:21:53Z</time>
      </trkpt>
      <trkpt lat="44.43177" lon="6.12366">
        <ele>1468.0705566</ele>
        <time>2011-11-29T12:22:35Z</time>
      </trkpt>
      <trkpt lat="44.43177" lon="6.12364">
        <ele>1467.1091309</ele>
        <time>2011-11-29T12:22:50Z</time>
      </trkpt>
      <trkpt lat="44.43179" lon="6.12351">
        <ele>1464.2250977</ele>
        <time>2011-11-29T12:22:59Z</time>
      </trkpt>
      <trkpt lat="44.43196" lon="6.12332">
        <ele>1461.8220215</ele>
        <time>2011-11-29T12:23:07Z</time>
      </trkpt>
      <trkpt lat="44.43201" lon="6.12323">
        <ele>1460.8605957</ele>
        <time>2011-11-29T12:23:11Z</time>
      </trkpt>
      <trkpt lat="44.43204" lon="6.12317">
        <ele>1460.3798828</ele>
        <time>2011-11-29T12:23:13Z</time>
      </trkpt>
      <trkpt lat="44.43219" lon="6.12297">
        <ele>1457.9768066</ele>
        <time>2011-11-29T12:23:19Z</time>
      </trkpt>
      <trkpt lat="44.43249" lon="6.123">
        <ele>1457.4960938</ele>
        <time>2011-11-29T12:23:24Z</time>
      </trkpt>
      <trkpt lat="44.43289" lon="6.12293">
        <ele>1454.6120605</ele>
        <time>2011-11-29T12:23:30Z</time>
      </trkpt>
      <trkpt lat="44.43299" lon="6.12286">
        <ele>1453.6508789</ele>
        <time>2011-11-29T12:23:33Z</time>
      </trkpt>
      <trkpt lat="44.43301" lon="6.12268">
        <ele>1452.2087402</ele>
        <time>2011-11-29T12:23:39Z</time>
      </trkpt>
      <trkpt lat="44.43301" lon="6.12267">
        <ele>1450.2861328</ele>
        <time>2011-11-29T12:23:43Z</time>
      </trkpt>
      <trkpt lat="44.43308" lon="6.12268">
        <ele>1449.8054199</ele>
        <time>2011-11-29T12:23:45Z</time>
      </trkpt>
      <trkpt lat="44.43355" lon="6.12278">
        <ele>1447.8828125</ele>
        <time>2011-11-29T12:23:53Z</time>
      </trkpt>
      <trkpt lat="44.43375" lon="6.12285">
        <ele>1445.9602051</ele>
        <time>2011-11-29T12:23:57Z</time>
      </trkpt>
      <trkpt lat="44.43384" lon="6.12293">
        <ele>1444.9987793</ele>
        <time>2011-11-29T12:24:00Z</time>
      </trkpt>
      <trkpt lat="44.4342" lon="6.12301">
        <ele>1440.6728516</ele>
        <time>2011-11-29T12:24:09Z</time>
      </trkpt>
      <trkpt lat="44.43438" lon="6.12309">
        <ele>1439.230957</ele>
        <time>2011-11-29T12:24:14Z</time>
      </trkpt>
      <trkpt lat="44.43454" lon="6.12317">
        <ele>1437.3083496</ele>
        <time>2011-11-29T12:24:18Z</time>
      </trkpt>
      <trkpt lat="44.43459" lon="6.1232">
        <ele>1435.8662109</ele>
        <time>2011-11-29T12:24:28Z</time>
      </trkpt>
      <trkpt lat="44.43459" lon="6.1232">
        <ele>1436.347168</ele>
        <time>2011-11-29T12:26:59Z</time>
      </trkpt>
      <trkpt lat="44.4343" lon="6.1232">
        <ele>1434.9050293</ele>
        <time>2011-11-29T12:27:08Z</time>
      </trkpt>
      <trkpt lat="44.43422" lon="6.1232">
        <ele>1433.4628906</ele>
        <time>2011-11-29T12:27:10Z</time>
      </trkpt>
      <trkpt lat="44.43396" lon="6.12333">
        <ele>1431.0598145</ele>
        <time>2011-11-29T12:27:17Z</time>
      </trkpt>
      <trkpt lat="44.43389" lon="6.12339">
        <ele>1430.0983887</ele>
        <time>2011-11-29T12:27:20Z</time>
      </trkpt>
      <trkpt lat="44.43368" lon="6.12341">
        <ele>1429.1369629</ele>
        <time>2011-11-29T12:27:26Z</time>
      </trkpt>
      <trkpt lat="44.4335" lon="6.12323">
        <ele>1428.6564941</ele>
        <time>2011-11-29T12:27:33Z</time>
      </trkpt>
      <trkpt lat="44.43338" lon="6.12326">
        <ele>1426.7338867</ele>
        <time>2011-11-29T12:27:39Z</time>
      </trkpt>
      <trkpt lat="44.4333" lon="6.1237">
        <ele>1424.3305664</ele>
        <time>2011-11-29T12:27:47Z</time>
      </trkpt>
      <trkpt lat="44.43329" lon="6.12378">
        <ele>1423.3693848</ele>
        <time>2011-11-29T12:27:49Z</time>
      </trkpt>
      <trkpt lat="44.4332" lon="6.1239">
        <ele>1421.9272461</ele>
        <time>2011-11-29T12:27:54Z</time>
      </trkpt>
      <trkpt lat="44.43297" lon="6.12376">
        <ele>1419.5239258</ele>
        <time>2011-11-29T12:28:01Z</time>
      </trkpt>
      <trkpt lat="44.43283" lon="6.12413">
        <ele>1417.6010742</ele>
        <time>2011-11-29T12:28:09Z</time>
      </trkpt>
      <trkpt lat="44.43276" lon="6.12427">
        <ele>1415.6787109</ele>
        <time>2011-11-29T12:28:12Z</time>
      </trkpt>
      <trkpt lat="44.4327" lon="6.12439">
        <ele>1414.7172852</ele>
        <time>2011-11-29T12:28:15Z</time>
      </trkpt>
      <trkpt lat="44.43268" lon="6.12442">
        <ele>1413.7558594</ele>
        <time>2011-11-29T12:28:17Z</time>
      </trkpt>
      <trkpt lat="44.43272" lon="6.12435">
        <ele>1413.2753906</ele>
        <time>2011-11-29T12:28:22Z</time>
      </trkpt>
      <trkpt lat="44.43286" lon="6.12405">
        <ele>1413.2753906</ele>
        <time>2011-11-29T12:28:33Z</time>
      </trkpt>
      <trkpt lat="44.43334" lon="6.12404">
        <ele>1413.2753906</ele>
        <time>2011-11-29T12:28:44Z</time>
      </trkpt>
      <trkpt lat="44.43343" lon="6.12383">
        <ele>1412.3139648</ele>
        <time>2011-11-29T12:28:49Z</time>
      </trkpt>
      <trkpt lat="44.43386" lon="6.12398">
        <ele>1411.8334961</ele>
        <time>2011-11-29T12:28:59Z</time>
      </trkpt>
      <trkpt lat="44.43405" lon="6.124">
        <ele>1410.3913574</ele>
        <time>2011-11-29T12:29:03Z</time>
      </trkpt>
      <trkpt lat="44.43428" lon="6.1241">
        <ele>1408.46875</ele>
        <time>2011-11-29T12:29:08Z</time>
      </trkpt>
      <trkpt lat="44.43436" lon="6.12418">
        <ele>1408.46875</ele>
        <time>2011-11-29T12:29:10Z</time>
      </trkpt>
      <trkpt lat="44.43469" lon="6.12496">
        <ele>1409.4301758</ele>
        <time>2011-11-29T12:29:26Z</time>
      </trkpt>
      <trkpt lat="44.43478" lon="6.12546">
        <ele>1411.3527832</ele>
        <time>2011-11-29T12:29:39Z</time>
      </trkpt>
      <trkpt lat="44.43487" lon="6.12575">
        <ele>1410.8720703</ele>
        <time>2011-11-29T12:29:47Z</time>
      </trkpt>
      <trkpt lat="44.43509" lon="6.12619">
        <ele>1409.9106445</ele>
        <time>2011-11-29T12:29:58Z</time>
      </trkpt>
      <trkpt lat="44.43534" lon="6.1267">
        <ele>1406.5461426</ele>
        <time>2011-11-29T12:30:08Z</time>
      </trkpt>
      <trkpt lat="44.43559" lon="6.1273">
        <ele>1403.6621094</ele>
        <time>2011-11-29T12:30:20Z</time>
      </trkpt>
      <trkpt lat="44.43581" lon="6.12782">
        <ele>1400.2976074</ele>
        <time>2011-11-29T12:30:29Z</time>
      </trkpt>
      <trkpt lat="44.43586" lon="6.12794">
        <ele>1399.8168945</ele>
        <time>2011-11-29T12:30:31Z</time>
      </trkpt>
      <trkpt lat="44.43591" lon="6.12807">
        <ele>1398.8554688</ele>
        <time>2011-11-29T12:30:33Z</time>
      </trkpt>
      <trkpt lat="44.43607" lon="6.12827">
        <ele>1396.9328613</ele>
        <time>2011-11-29T12:30:38Z</time>
      </trkpt>
      <trkpt lat="44.43625" lon="6.12838">
        <ele>1395.0102539</ele>
        <time>2011-11-29T12:30:42Z</time>
      </trkpt>
      <trkpt lat="44.43633" lon="6.12843">
        <ele>1391.645752</ele>
        <time>2011-11-29T12:30:44Z</time>
      </trkpt>
      <trkpt lat="44.43638" lon="6.12846">
        <ele>1391.645752</ele>
        <time>2011-11-29T12:30:45Z</time>
      </trkpt>
      <trkpt lat="44.43651" lon="6.12856">
        <ele>1389.7231445</ele>
        <time>2011-11-29T12:30:48Z</time>
      </trkpt>
      <trkpt lat="44.43661" lon="6.12868">
        <ele>1388.7619629</ele>
        <time>2011-11-29T12:30:51Z</time>
      </trkpt>
      <trkpt lat="44.43667" lon="6.12884">
        <ele>1386.3583984</ele>
        <time>2011-11-29T12:30:54Z</time>
      </trkpt>
      <trkpt lat="44.43679" lon="6.12909">
        <ele>1385.3969727</ele>
        <time>2011-11-29T12:30:58Z</time>
      </trkpt>
      <trkpt lat="44.43689" lon="6.12921">
        <ele>1382.9936523</ele>
        <time>2011-11-29T12:31:01Z</time>
      </trkpt>
      <trkpt lat="44.43692" lon="6.12928">
        <ele>1382.0324707</ele>
        <time>2011-11-29T12:31:02Z</time>
      </trkpt>
      <trkpt lat="44.43696" lon="6.12955">
        <ele>1380.5905762</ele>
        <time>2011-11-29T12:31:06Z</time>
      </trkpt>
      <trkpt lat="44.43697" lon="6.12968">
        <ele>1379.6291504</ele>
        <time>2011-11-29T12:31:08Z</time>
      </trkpt>
      <trkpt lat="44.43722" lon="6.12994">
        <ele>1377.2260742</ele>
        <time>2011-11-29T12:31:15Z</time>
      </trkpt>
      <trkpt lat="44.43731" lon="6.12998">
        <ele>1376.2646484</ele>
        <time>2011-11-29T12:31:17Z</time>
      </trkpt>
      <trkpt lat="44.43751" lon="6.13021">
        <ele>1372.9001465</ele>
        <time>2011-11-29T12:31:22Z</time>
      </trkpt>
      <trkpt lat="44.43757" lon="6.13031">
        <ele>1371.4577637</ele>
        <time>2011-11-29T12:31:24Z</time>
      </trkpt>
      <trkpt lat="44.43772" lon="6.13066">
        <ele>1371.4577637</ele>
        <time>2011-11-29T12:31:30Z</time>
      </trkpt>
      <trkpt lat="44.43779" lon="6.1311">
        <ele>1370.9772949</ele>
        <time>2011-11-29T12:31:36Z</time>
      </trkpt>
      <trkpt lat="44.43786" lon="6.1318">
        <ele>1369.0546875</ele>
        <time>2011-11-29T12:31:45Z</time>
      </trkpt>
      <trkpt lat="44.43788" lon="6.13265">
        <ele>1370.496582</ele>
        <time>2011-11-29T12:31:58Z</time>
      </trkpt>
      <trkpt lat="44.43773" lon="6.13314">
        <ele>1370.9772949</ele>
        <time>2011-11-29T12:32:09Z</time>
      </trkpt>
      <trkpt lat="44.43743" lon="6.13347">
        <ele>1370.496582</ele>
        <time>2011-11-29T12:32:21Z</time>
      </trkpt>
      <trkpt lat="44.43727" lon="6.13381">
        <ele>1369.0546875</ele>
        <time>2011-11-29T12:32:29Z</time>
      </trkpt>
      <trkpt lat="44.43732" lon="6.13445">
        <ele>1366.1706543</ele>
        <time>2011-11-29T12:32:40Z</time>
      </trkpt>
      <trkpt lat="44.43739" lon="6.13453">
        <ele>1366.1706543</ele>
        <time>2011-11-29T12:32:42Z</time>
      </trkpt>
      <trkpt lat="44.43755" lon="6.13465">
        <ele>1365.6901855</ele>
        <time>2011-11-29T12:32:46Z</time>
      </trkpt>
      <trkpt lat="44.43774" lon="6.13488">
        <ele>1365.6901855</ele>
        <time>2011-11-29T12:32:54Z</time>
      </trkpt>
      <trkpt lat="44.43775" lon="6.13506">
        <ele>1363.767334</ele>
        <time>2011-11-29T12:32:57Z</time>
      </trkpt>
      <trkpt lat="44.43794" lon="6.13526">
        <ele>1362.8061523</ele>
        <time>2011-11-29T12:33:02Z</time>
      </trkpt>
      <trkpt lat="44.43813" lon="6.13532">
        <ele>1362.8061523</ele>
        <time>2011-11-29T12:33:07Z</time>
      </trkpt>
      <trkpt lat="44.43817" lon="6.13569">
        <ele>1362.3254395</ele>
        <time>2011-11-29T12:33:15Z</time>
      </trkpt>
      <trkpt lat="44.43807" lon="6.13642">
        <ele>1362.8061523</ele>
        <time>2011-11-29T12:33:28Z</time>
      </trkpt>
      <trkpt lat="44.43782" lon="6.13666">
        <ele>1363.2868652</ele>
        <time>2011-11-29T12:33:38Z</time>
      </trkpt>
      <trkpt lat="44.43751" lon="6.1366">
        <ele>1360.8835449</ele>
        <time>2011-11-29T12:33:45Z</time>
      </trkpt>
      <trkpt lat="44.43729" lon="6.13663">
        <ele>1358.4802246</ele>
        <time>2011-11-29T12:33:50Z</time>
      </trkpt>
      <trkpt lat="44.43704" lon="6.1367">
        <ele>1356.5576172</ele>
        <time>2011-11-29T12:33:55Z</time>
      </trkpt>
      <trkpt lat="44.4368" lon="6.13695">
        <ele>1353.673584</ele>
        <time>2011-11-29T12:34:06Z</time>
      </trkpt>
      <trkpt lat="44.43686" lon="6.13722">
        <ele>1354.6347656</ele>
        <time>2011-11-29T12:34:18Z</time>
      </trkpt>
      <trkpt lat="44.43686" lon="6.13726">
        <ele>1354.6347656</ele>
        <time>2011-11-29T12:34:32Z</time>
      </trkpt>
      <trkpt lat="44.43686" lon="6.13726">
        <ele>1354.6347656</ele>
        <time>2011-11-29T12:35:27Z</time>
      </trkpt>
      <trkpt lat="44.43686" lon="6.13726">
        <ele>1355.5961914</ele>
        <time>2011-11-29T12:35:55Z</time>
      </trkpt>
      <trkpt lat="44.43686" lon="6.13726">
        <ele>1355.5961914</ele>
        <time>2011-11-29T12:36:36Z</time>
      </trkpt>
      <trkpt lat="44.43686" lon="6.13726">
        <ele>1357.519043</ele>
        <time>2011-11-29T12:40:14Z</time>
      </trkpt>
      <trkpt lat="44.43686" lon="6.13726">
        <ele>1357.519043</ele>
        <time>2011-11-29T12:40:25Z</time>
      </trkpt>
      <trkpt lat="44.43682" lon="6.13767">
        <ele>1357.519043</ele>
        <time>2011-11-29T12:40:29Z</time>
      </trkpt>
      <trkpt lat="44.4368" lon="6.13814">
        <ele>1355.5961914</ele>
        <time>2011-11-29T12:40:40Z</time>
      </trkpt>
      <trkpt lat="44.43689" lon="6.13876">
        <ele>1353.673584</ele>
        <time>2011-11-29T12:40:54Z</time>
      </trkpt>
      <trkpt lat="44.43718" lon="6.13897">
        <ele>1351.2702637</ele>
        <time>2011-11-29T12:41:04Z</time>
      </trkpt>
      <trkpt lat="44.43734" lon="6.13902">
        <ele>1349.8283691</ele>
        <time>2011-11-29T12:41:08Z</time>
      </trkpt>
      <trkpt lat="44.43744" lon="6.13905">
        <ele>1348.8669434</ele>
        <time>2011-11-29T12:41:10Z</time>
      </trkpt>
      <trkpt lat="44.43748" lon="6.13907">
        <ele>1348.3862305</ele>
        <time>2011-11-29T12:41:11Z</time>
      </trkpt>
      <trkpt lat="44.43769" lon="6.13913">
        <ele>1347.4250488</ele>
        <time>2011-11-29T12:41:16Z</time>
      </trkpt>
      <trkpt lat="44.4376" lon="6.13966">
        <ele>1344.0605469</ele>
        <time>2011-11-29T12:41:27Z</time>
      </trkpt>
      <trkpt lat="44.43766" lon="6.13978">
        <ele>1341.6572266</ele>
        <time>2011-11-29T12:41:33Z</time>
      </trkpt>
      <trkpt lat="44.43784" lon="6.13987">
        <ele>1339.2536621</ele>
        <time>2011-11-29T12:41:38Z</time>
      </trkpt>
      <trkpt lat="44.43793" lon="6.13991">
        <ele>1338.7731934</ele>
        <time>2011-11-29T12:41:40Z</time>
      </trkpt>
      <trkpt lat="44.43814" lon="6.13998">
        <ele>1336.369873</ele>
        <time>2011-11-29T12:41:45Z</time>
      </trkpt>
      <trkpt lat="44.43823" lon="6.13997">
        <ele>1335.8891602</ele>
        <time>2011-11-29T12:41:47Z</time>
      </trkpt>
      <trkpt lat="44.43837" lon="6.13996">
        <ele>1334.4472656</ele>
        <time>2011-11-29T12:41:51Z</time>
      </trkpt>
      <trkpt lat="44.43838" lon="6.13996">
        <ele>1332.5246582</ele>
        <time>2011-11-29T12:41:54Z</time>
      </trkpt>
      <trkpt lat="44.43838" lon="6.13996">
        <ele>1331.5632324</ele>
        <time>2011-11-29T12:41:55Z</time>
      </trkpt>
      <trkpt lat="44.43856" lon="6.14003">
        <ele>1331.0827637</ele>
        <time>2011-11-29T12:41:58Z</time>
      </trkpt>
      <trkpt lat="44.43849" lon="6.14019">
        <ele>1329.1599121</ele>
        <time>2011-11-29T12:42:04Z</time>
      </trkpt>
      <trkpt lat="44.43817" lon="6.14052">
        <ele>1326.276123</ele>
        <time>2011-11-29T12:42:15Z</time>
      </trkpt>
      <trkpt lat="44.43804" lon="6.14061">
        <ele>1325.3146973</ele>
        <time>2011-11-29T12:42:19Z</time>
      </trkpt>
      <trkpt lat="44.43796" lon="6.14067">
        <ele>1323.8725586</ele>
        <time>2011-11-29T12:42:22Z</time>
      </trkpt>
      <trkpt lat="44.43778" lon="6.14107">
        <ele>1320.5080566</ele>
        <time>2011-11-29T12:42:29Z</time>
      </trkpt>
      <trkpt lat="44.43765" lon="6.14154">
        <ele>1316.6628418</ele>
        <time>2011-11-29T12:42:37Z</time>
      </trkpt>
      <trkpt lat="44.43763" lon="6.1416">
        <ele>1316.6628418</ele>
        <time>2011-11-29T12:42:38Z</time>
      </trkpt>
      <trkpt lat="44.43749" lon="6.142">
        <ele>1313.7788086</ele>
        <time>2011-11-29T12:42:45Z</time>
      </trkpt>
      <trkpt lat="44.43746" lon="6.14213">
        <ele>1312.817627</ele>
        <time>2011-11-29T12:42:47Z</time>
      </trkpt>
      <trkpt lat="44.43745" lon="6.14249">
        <ele>1310.8950195</ele>
        <time>2011-11-29T12:42:52Z</time>
      </trkpt>
      <trkpt lat="44.43746" lon="6.14266">
        <ele>1310.4143066</ele>
        <time>2011-11-29T12:42:54Z</time>
      </trkpt>
      <trkpt lat="44.43752" lon="6.14321">
        <ele>1308.0112305</ele>
        <time>2011-11-29T12:43:04Z</time>
      </trkpt>
      <trkpt lat="44.43801" lon="6.14348">
        <ele>1308.0112305</ele>
        <time>2011-11-29T12:43:17Z</time>
      </trkpt>
      <trkpt lat="44.43805" lon="6.1435">
        <ele>1307.5302734</ele>
        <time>2011-11-29T12:43:19Z</time>
      </trkpt>
      <trkpt lat="44.43801" lon="6.14399">
        <ele>1306.0881348</ele>
        <time>2011-11-29T12:43:30Z</time>
      </trkpt>
      <trkpt lat="44.43787" lon="6.14443">
        <ele>1305.1269531</ele>
        <time>2011-11-29T12:43:42Z</time>
      </trkpt>
      <trkpt lat="44.438" lon="6.14477">
        <ele>1305.1269531</ele>
        <time>2011-11-29T12:43:52Z</time>
      </trkpt>
      <trkpt lat="44.438" lon="6.14484">
        <ele>1304.6462402</ele>
        <time>2011-11-29T12:44:07Z</time>
      </trkpt>
      <trkpt lat="44.438" lon="6.14483">
        <ele>1304.6462402</ele>
        <time>2011-11-29T12:44:12Z</time>
      </trkpt>
      <trkpt lat="44.43788" lon="6.14477">
        <ele>1303.2043457</ele>
        <time>2011-11-29T12:44:20Z</time>
      </trkpt>
      <trkpt lat="44.43779" lon="6.14475">
        <ele>1299.8398438</ele>
        <time>2011-11-29T12:44:37Z</time>
      </trkpt>
      <trkpt lat="44.43777" lon="6.14476">
        <ele>1299.3591309</ele>
        <time>2011-11-29T12:44:40Z</time>
      </trkpt>
      <trkpt lat="44.43764" lon="6.14481">
        <ele>1295.513916</ele>
        <time>2011-11-29T12:44:53Z</time>
      </trkpt>
      <trkpt lat="44.43747" lon="6.14492">
        <ele>1291.668457</ele>
        <time>2011-11-29T12:45:03Z</time>
      </trkpt>
      <trkpt lat="44.43746" lon="6.14493">
        <ele>1291.668457</ele>
        <time>2011-11-29T12:45:04Z</time>
      </trkpt>
      <trkpt lat="44.43745" lon="6.14494">
        <ele>1291.1877441</ele>
        <time>2011-11-29T12:45:05Z</time>
      </trkpt>
      <trkpt lat="44.4374" lon="6.145">
        <ele>1290.2265625</ele>
        <time>2011-11-29T12:45:08Z</time>
      </trkpt>
      <trkpt lat="44.43732" lon="6.14504">
        <ele>1289.2651367</ele>
        <time>2011-11-29T12:45:11Z</time>
      </trkpt>
      <trkpt lat="44.43724" lon="6.14513">
        <ele>1287.3425293</ele>
        <time>2011-11-29T12:45:17Z</time>
      </trkpt>
      <trkpt lat="44.43722" lon="6.1452">
        <ele>1285.9006348</ele>
        <time>2011-11-29T12:45:20Z</time>
      </trkpt>
      <trkpt lat="44.43717" lon="6.14541">
        <ele>1282.5361328</ele>
        <time>2011-11-29T12:45:26Z</time>
      </trkpt>
      <trkpt lat="44.43716" lon="6.14545">
        <ele>1282.5361328</ele>
        <time>2011-11-29T12:45:27Z</time>
      </trkpt>
      <trkpt lat="44.43699" lon="6.14578">
        <ele>1279.6520996</ele>
        <time>2011-11-29T12:45:40Z</time>
      </trkpt>
      <trkpt lat="44.43678" lon="6.14601">
        <ele>1276.7683105</ele>
        <time>2011-11-29T12:45:53Z</time>
      </trkpt>
      <trkpt lat="44.43655" lon="6.14622">
        <ele>1274.3647461</ele>
        <time>2011-11-29T12:46:05Z</time>
      </trkpt>
      <trkpt lat="44.43636" lon="6.14657">
        <ele>1270.5195313</ele>
        <time>2011-11-29T12:46:21Z</time>
      </trkpt>
      <trkpt lat="44.43632" lon="6.14664">
        <ele>1269.0776367</ele>
        <time>2011-11-29T12:46:25Z</time>
      </trkpt>
      <trkpt lat="44.43627" lon="6.14676">
        <ele>1266.1936035</ele>
        <time>2011-11-29T12:46:32Z</time>
      </trkpt>
      <trkpt lat="44.43624" lon="6.14686">
        <ele>1262.8291016</ele>
        <time>2011-11-29T12:46:38Z</time>
      </trkpt>
      <trkpt lat="44.43623" lon="6.1469">
        <ele>1262.8291016</ele>
        <time>2011-11-29T12:46:39Z</time>
      </trkpt>
      <trkpt lat="44.43623" lon="6.14701">
        <ele>1261.387207</ele>
        <time>2011-11-29T12:46:42Z</time>
      </trkpt>
      <trkpt lat="44.43611" lon="6.14741">
        <ele>1258.9836426</ele>
        <time>2011-11-29T12:46:53Z</time>
      </trkpt>
      <trkpt lat="44.43608" lon="6.14753">
        <ele>1258.0224609</ele>
        <time>2011-11-29T12:46:57Z</time>
      </trkpt>
      <trkpt lat="44.43605" lon="6.14762">
        <ele>1256.5803223</ele>
        <time>2011-11-29T12:47:02Z</time>
      </trkpt>
      <trkpt lat="44.43595" lon="6.14779">
        <ele>1253.2158203</ele>
        <time>2011-11-29T12:47:14Z</time>
      </trkpt>
      <trkpt lat="44.43592" lon="6.14784">
        <ele>1252.2543945</ele>
        <time>2011-11-29T12:47:16Z</time>
      </trkpt>
      <trkpt lat="44.43583" lon="6.14797">
        <ele>1249.3706055</ele>
        <time>2011-11-29T12:47:22Z</time>
      </trkpt>
      <trkpt lat="44.43572" lon="6.14812">
        <ele>1246.4868164</ele>
        <time>2011-11-29T12:47:30Z</time>
      </trkpt>
      <trkpt lat="44.43559" lon="6.1483">
        <ele>1242.6413574</ele>
        <time>2011-11-29T12:47:40Z</time>
      </trkpt>
      <trkpt lat="44.43556" lon="6.14838">
        <ele>1242.1606445</ele>
        <time>2011-11-29T12:47:44Z</time>
      </trkpt>
      <trkpt lat="44.43556" lon="6.1484">
        <ele>1241.6799316</ele>
        <time>2011-11-29T12:47:51Z</time>
      </trkpt>
      <trkpt lat="44.43547" lon="6.14872">
        <ele>1237.8347168</ele>
        <time>2011-11-29T12:48:03Z</time>
      </trkpt>
      <trkpt lat="44.43539" lon="6.14902">
        <ele>1236.873291</ele>
        <time>2011-11-29T12:48:13Z</time>
      </trkpt>
      <trkpt lat="44.43539" lon="6.14906">
        <ele>1237.3540039</ele>
        <time>2011-11-29T12:49:06Z</time>
      </trkpt>
      <trkpt lat="44.43534" lon="6.14917">
        <ele>1237.3540039</ele>
        <time>2011-11-29T12:49:11Z</time>
      </trkpt>
      <trkpt lat="44.43528" lon="6.14926">
        <ele>1235.9121094</ele>
        <time>2011-11-29T12:49:14Z</time>
      </trkpt>
      <trkpt lat="44.43521" lon="6.14968">
        <ele>1235.9121094</ele>
        <time>2011-11-29T12:49:26Z</time>
      </trkpt>
      <trkpt lat="44.43509" lon="6.14996">
        <ele>1237.3540039</ele>
        <time>2011-11-29T12:49:37Z</time>
      </trkpt>
      <trkpt lat="44.43507" lon="6.15007">
        <ele>1236.873291</ele>
        <time>2011-11-29T12:49:41Z</time>
      </trkpt>
      <trkpt lat="44.43482" lon="6.15042">
        <ele>1237.3540039</ele>
        <time>2011-11-29T12:49:54Z</time>
      </trkpt>
      <trkpt lat="44.43461" lon="6.15071">
        <ele>1238.3154297</ele>
        <time>2011-11-29T12:50:07Z</time>
      </trkpt>
      <trkpt lat="44.43437" lon="6.1509">
        <ele>1240.2380371</ele>
        <time>2011-11-29T12:50:28Z</time>
      </trkpt>
      <trkpt lat="44.43421" lon="6.15108">
        <ele>1236.873291</ele>
        <time>2011-11-29T12:50:38Z</time>
      </trkpt>
      <trkpt lat="44.43406" lon="6.15117">
        <ele>1233.5087891</ele>
        <time>2011-11-29T12:50:48Z</time>
      </trkpt>
      <trkpt lat="44.43394" lon="6.15129">
        <ele>1231.1057129</ele>
        <time>2011-11-29T12:50:55Z</time>
      </trkpt>
      <trkpt lat="44.43387" lon="6.15133">
        <ele>1230.625</ele>
        <time>2011-11-29T12:50:59Z</time>
      </trkpt>
      <trkpt lat="44.4337" lon="6.15145">
        <ele>1227.2602539</ele>
        <time>2011-11-29T12:51:10Z</time>
      </trkpt>
      <trkpt lat="44.4336" lon="6.15159">
        <ele>1224.3762207</ele>
        <time>2011-11-29T12:51:18Z</time>
      </trkpt>
      <trkpt lat="44.43342" lon="6.15179">
        <ele>1221.9729004</ele>
        <time>2011-11-29T12:51:30Z</time>
      </trkpt>
      <trkpt lat="44.43325" lon="6.152">
        <ele>1218.6083984</ele>
        <time>2011-11-29T12:51:39Z</time>
      </trkpt>
      <trkpt lat="44.43323" lon="6.15204">
        <ele>1218.6083984</ele>
        <time>2011-11-29T12:51:40Z</time>
      </trkpt>
      <trkpt lat="44.43307" lon="6.15222">
        <ele>1216.685791</ele>
        <time>2011-11-29T12:51:47Z</time>
      </trkpt>
      <trkpt lat="44.43289" lon="6.15233">
        <ele>1215.7246094</ele>
        <time>2011-11-29T12:51:56Z</time>
      </trkpt>
      <trkpt lat="44.43289" lon="6.15233">
        <ele>1217.1665039</ele>
        <time>2011-11-29T12:52:00Z</time>
      </trkpt>
      <trkpt lat="44.43289" lon="6.15233">
        <ele>1216.685791</ele>
        <time>2011-11-29T12:52:02Z</time>
      </trkpt>
      <trkpt lat="44.43262" lon="6.15258">
        <ele>1216.2050781</ele>
        <time>2011-11-29T12:52:12Z</time>
      </trkpt>
      <trkpt lat="44.43248" lon="6.15269">
        <ele>1215.2438965</ele>
        <time>2011-11-29T12:52:18Z</time>
      </trkpt>
      <trkpt lat="44.4324" lon="6.15276">
        <ele>1213.8017578</ele>
        <time>2011-11-29T12:52:22Z</time>
      </trkpt>
      <trkpt lat="44.43236" lon="6.15279">
        <ele>1213.3212891</ele>
        <time>2011-11-29T12:52:24Z</time>
      </trkpt>
      <trkpt lat="44.43229" lon="6.15284">
        <ele>1211.8791504</ele>
        <time>2011-11-29T12:52:28Z</time>
      </trkpt>
      <trkpt lat="44.43219" lon="6.1529">
        <ele>1209.9562988</ele>
        <time>2011-11-29T12:52:37Z</time>
      </trkpt>
      <trkpt lat="44.43204" lon="6.153">
        <ele>1205.6306152</ele>
        <time>2011-11-29T12:52:46Z</time>
      </trkpt>
      <trkpt lat="44.43201" lon="6.15302">
        <ele>1205.6306152</ele>
        <time>2011-11-29T12:52:47Z</time>
      </trkpt>
      <trkpt lat="44.43188" lon="6.15307">
        <ele>1202.746582</ele>
        <time>2011-11-29T12:52:55Z</time>
      </trkpt>
      <trkpt lat="44.43177" lon="6.15312">
        <ele>1200.3435059</ele>
        <time>2011-11-29T12:53:01Z</time>
      </trkpt>
      <trkpt lat="44.4317" lon="6.15315">
        <ele>1197.9401855</ele>
        <time>2011-11-29T12:53:05Z</time>
      </trkpt>
      <trkpt lat="44.43162" lon="6.15318">
        <ele>1195.5366211</ele>
        <time>2011-11-29T12:53:08Z</time>
      </trkpt>
      <trkpt lat="44.43157" lon="6.1532">
        <ele>1194.0947266</ele>
        <time>2011-11-29T12:53:10Z</time>
      </trkpt>
      <trkpt lat="44.43143" lon="6.15329">
        <ele>1190.2495117</ele>
        <time>2011-11-29T12:53:16Z</time>
      </trkpt>
      <trkpt lat="44.43141" lon="6.1533">
        <ele>1190.2495117</ele>
        <time>2011-11-29T12:53:17Z</time>
      </trkpt>
      <trkpt lat="44.43131" lon="6.15339">
        <ele>1186.4042969</ele>
        <time>2011-11-29T12:53:23Z</time>
      </trkpt>
      <trkpt lat="44.43124" lon="6.15331">
        <ele>1185.4428711</ele>
        <time>2011-11-29T12:53:31Z</time>
      </trkpt>
      <trkpt lat="44.43121" lon="6.15344">
        <ele>1184.9624023</ele>
        <time>2011-11-29T12:53:44Z</time>
      </trkpt>
      <trkpt lat="44.43122" lon="6.15358">
        <ele>1181.1171875</ele>
        <time>2011-11-29T12:53:57Z</time>
      </trkpt>
      <trkpt lat="44.43122" lon="6.15363">
        <ele>1179.6748047</ele>
        <time>2011-11-29T12:54:11Z</time>
      </trkpt>
      <trkpt lat="44.43114" lon="6.1537">
        <ele>1178.2329102</ele>
        <time>2011-11-29T12:54:16Z</time>
      </trkpt>
      <trkpt lat="44.43107" lon="6.15381">
        <ele>1175.8295898</ele>
        <time>2011-11-29T12:54:22Z</time>
      </trkpt>
      <trkpt lat="44.43098" lon="6.15393">
        <ele>1173.4265137</ele>
        <time>2011-11-29T12:54:29Z</time>
      </trkpt>
      <trkpt lat="44.43089" lon="6.15413">
        <ele>1170.0617676</ele>
        <time>2011-11-29T12:54:37Z</time>
      </trkpt>
      <trkpt lat="44.43081" lon="6.15434">
        <ele>1166.6972656</ele>
        <time>2011-11-29T12:54:44Z</time>
      </trkpt>
      <trkpt lat="44.43071" lon="6.15433">
        <ele>1166.6972656</ele>
        <time>2011-11-29T12:54:45Z</time>
      </trkpt>
      <trkpt lat="44.43067" lon="6.15442">
        <ele>1164.7746582</ele>
        <time>2011-11-29T12:54:47Z</time>
      </trkpt>
      <trkpt lat="44.43055" lon="6.15467">
        <ele>1161.890625</ele>
        <time>2011-11-29T12:54:52Z</time>
      </trkpt>
      <trkpt lat="44.43034" lon="6.15511">
        <ele>1159.0065918</ele>
        <time>2011-11-29T12:55:01Z</time>
      </trkpt>
      <trkpt lat="44.43015" lon="6.15548">
        <ele>1158.5258789</ele>
        <time>2011-11-29T12:55:11Z</time>
      </trkpt>
      <trkpt lat="44.42998" lon="6.15569">
        <ele>1156.1225586</ele>
        <time>2011-11-29T12:55:20Z</time>
      </trkpt>
      <trkpt lat="44.42985" lon="6.15586">
        <ele>1152.7580566</ele>
        <time>2011-11-29T12:55:30Z</time>
      </trkpt>
      <trkpt lat="44.42973" lon="6.15625">
        <ele>1149.8742676</ele>
        <time>2011-11-29T12:55:41Z</time>
      </trkpt>
      <trkpt lat="44.42972" lon="6.15633">
        <ele>1148.9128418</ele>
        <time>2011-11-29T12:55:43Z</time>
      </trkpt>
      <trkpt lat="44.42968" lon="6.15654">
        <ele>1146.0288086</ele>
        <time>2011-11-29T12:55:53Z</time>
      </trkpt>
      <trkpt lat="44.42961" lon="6.15676">
        <ele>1144.1062012</ele>
        <time>2011-11-29T12:55:58Z</time>
      </trkpt>
      <trkpt lat="44.42956" lon="6.15691">
        <ele>1142.1835938</ele>
        <time>2011-11-29T12:56:04Z</time>
      </trkpt>
      <trkpt lat="44.42945" lon="6.15716">
        <ele>1139.2995605</ele>
        <time>2011-11-29T12:56:14Z</time>
      </trkpt>
      <trkpt lat="44.42934" lon="6.15743">
        <ele>1135.9350586</ele>
        <time>2011-11-29T12:56:26Z</time>
      </trkpt>
      <trkpt lat="44.42933" lon="6.15745">
        <ele>1135.9350586</ele>
        <time>2011-11-29T12:56:27Z</time>
      </trkpt>
      <trkpt lat="44.42918" lon="6.15781">
        <ele>1134.0124512</ele>
        <time>2011-11-29T12:56:37Z</time>
      </trkpt>
      <trkpt lat="44.42915" lon="6.15789">
        <ele>1132.5705566</ele>
        <time>2011-11-29T12:56:41Z</time>
      </trkpt>
      <trkpt lat="44.42909" lon="6.15804">
        <ele>1131.6088867</ele>
        <time>2011-11-29T12:56:49Z</time>
      </trkpt>
      <trkpt lat="44.42905" lon="6.15813">
        <ele>1134.4931641</ele>
        <time>2011-11-29T12:57:02Z</time>
      </trkpt>
      <trkpt lat="44.42905" lon="6.15813">
        <ele>1135.4543457</ele>
        <time>2011-11-29T12:57:16Z</time>
      </trkpt>
      <trkpt lat="44.42889" lon="6.15852">
        <ele>1135.4543457</ele>
        <time>2011-11-29T12:57:20Z</time>
      </trkpt>
      <trkpt lat="44.42883" lon="6.15859">
        <ele>1134.0124512</ele>
        <time>2011-11-29T12:57:25Z</time>
      </trkpt>
      <trkpt lat="44.42877" lon="6.15859">
        <ele>1133.0510254</ele>
        <time>2011-11-29T12:57:28Z</time>
      </trkpt>
      <trkpt lat="44.42859" lon="6.15855">
        <ele>1128.7250977</ele>
        <time>2011-11-29T12:57:39Z</time>
      </trkpt>
      <trkpt lat="44.4285" lon="6.15855">
        <ele>1129.2055664</ele>
        <time>2011-11-29T12:57:48Z</time>
      </trkpt>
      <trkpt lat="44.42838" lon="6.15855">
        <ele>1127.7636719</ele>
        <time>2011-11-29T12:57:53Z</time>
      </trkpt>
      <trkpt lat="44.42819" lon="6.15857">
        <ele>1126.8024902</ele>
        <time>2011-11-29T12:58:03Z</time>
      </trkpt>
      <trkpt lat="44.42797" lon="6.15872">
        <ele>1127.2832031</ele>
        <time>2011-11-29T12:58:16Z</time>
      </trkpt>
      <trkpt lat="44.42797" lon="6.15872">
        <ele>1127.2832031</ele>
        <time>2011-11-29T12:58:33Z</time>
      </trkpt>
      <trkpt lat="44.42797" lon="6.15872">
        <ele>1127.7636719</ele>
        <time>2011-11-29T12:59:32Z</time>
      </trkpt>
      <trkpt lat="44.42794" lon="6.15876">
        <ele>1126.8024902</ele>
        <time>2011-11-29T12:59:46Z</time>
      </trkpt>
      <trkpt lat="44.42794" lon="6.15876">
        <ele>1126.8024902</ele>
        <time>2011-11-29T12:59:52Z</time>
      </trkpt>
      <trkpt lat="44.42804" lon="6.15862">
        <ele>1126.3217773</ele>
        <time>2011-11-29T12:59:54Z</time>
      </trkpt>
      <trkpt lat="44.42812" lon="6.15851">
        <ele>1124.3991699</ele>
        <time>2011-11-29T13:00:00Z</time>
      </trkpt>
      <trkpt lat="44.42818" lon="6.15842">
        <ele>1123.918457</ele>
        <time>2011-11-29T13:00:05Z</time>
      </trkpt>
      <trkpt lat="44.4283" lon="6.15807">
        <ele>1119.5927734</ele>
        <time>2011-11-29T13:00:19Z</time>
      </trkpt>
      <trkpt lat="44.4283" lon="6.15803">
        <ele>1118.6313477</ele>
        <time>2011-11-29T13:00:21Z</time>
      </trkpt>
      <trkpt lat="44.4283" lon="6.15791">
        <ele>1116.7087402</ele>
        <time>2011-11-29T13:00:25Z</time>
      </trkpt>
      <trkpt lat="44.42828" lon="6.15768">
        <ele>1113.3439941</ele>
        <time>2011-11-29T13:00:35Z</time>
      </trkpt>
      <trkpt lat="44.42822" lon="6.15748">
        <ele>1109.4987793</ele>
        <time>2011-11-29T13:00:43Z</time>
      </trkpt>
      <trkpt lat="44.42821" lon="6.15746">
        <ele>1109.4987793</ele>
        <time>2011-11-29T13:00:44Z</time>
      </trkpt>
      <trkpt lat="44.42817" lon="6.15733">
        <ele>1106.6147461</ele>
        <time>2011-11-29T13:00:50Z</time>
      </trkpt>
      <trkpt lat="44.42817" lon="6.15732">
        <ele>1104.6921387</ele>
        <time>2011-11-29T13:01:03Z</time>
      </trkpt>
      <trkpt lat="44.42817" lon="6.15732">
        <ele>1102.7695313</ele>
        <time>2011-11-29T13:01:14Z</time>
      </trkpt>
      <trkpt lat="44.42812" lon="6.15722">
        <ele>1101.3276367</ele>
        <time>2011-11-29T13:01:18Z</time>
      </trkpt>
      <trkpt lat="44.42812" lon="6.15722">
        <ele>1097.9628906</ele>
        <time>2011-11-29T13:01:33Z</time>
      </trkpt>
      <trkpt lat="44.42812" lon="6.15722">
        <ele>1095.5595703</ele>
        <time>2011-11-29T13:01:49Z</time>
      </trkpt>
      <trkpt lat="44.42812" lon="6.15722">
        <ele>1092.1950684</ele>
        <time>2011-11-29T13:02:08Z</time>
      </trkpt>
      <trkpt lat="44.42812" lon="6.15722">
        <ele>1088.8305664</ele>
        <time>2011-11-29T13:02:27Z</time>
      </trkpt>
      <trkpt lat="44.42812" lon="6.15722">
        <ele>1090.2724609</ele>
        <time>2011-11-29T13:03:07Z</time>
      </trkpt>
      <trkpt lat="44.42812" lon="6.15722">
        <ele>1088.8305664</ele>
        <time>2011-11-29T13:03:16Z</time>
      </trkpt>
      <trkpt lat="44.42783" lon="6.15674">
        <ele>1087.8691406</ele>
        <time>2011-11-29T13:03:21Z</time>
      </trkpt>
      <trkpt lat="44.42783" lon="6.15674">
        <ele>1086.4272461</ele>
        <time>2011-11-29T13:03:25Z</time>
      </trkpt>
      <trkpt lat="44.42793" lon="6.15634">
        <ele>1083.5429688</ele>
        <time>2011-11-29T13:03:40Z</time>
      </trkpt>
      <trkpt lat="44.4279" lon="6.15637">
        <ele>1082.1010742</ele>
        <time>2011-11-29T13:03:54Z</time>
      </trkpt>
      <trkpt lat="44.42788" lon="6.15637">
        <ele>1081.6203613</ele>
        <time>2011-11-29T13:03:56Z</time>
      </trkpt>
      <trkpt lat="44.42779" lon="6.15637">
        <ele>1078.2558594</ele>
        <time>2011-11-29T13:04:09Z</time>
      </trkpt>
      <trkpt lat="44.42775" lon="6.15637">
        <ele>1075.3718262</ele>
        <time>2011-11-29T13:04:25Z</time>
      </trkpt>
      <trkpt lat="44.42774" lon="6.1564">
        <ele>1075.3718262</ele>
        <time>2011-11-29T13:04:27Z</time>
      </trkpt>
      <trkpt lat="44.42763" lon="6.15638">
        <ele>1074.4106445</ele>
        <time>2011-11-29T13:04:34Z</time>
      </trkpt>
      <trkpt lat="44.42758" lon="6.15631">
        <ele>1072.4880371</ele>
        <time>2011-11-29T13:04:38Z</time>
      </trkpt>
      <trkpt lat="44.42747" lon="6.15611">
        <ele>1069.1235352</ele>
        <time>2011-11-29T13:04:45Z</time>
      </trkpt>
      <trkpt lat="44.42742" lon="6.15603">
        <ele>1067.6811523</ele>
        <time>2011-11-29T13:04:47Z</time>
      </trkpt>
      <trkpt lat="44.42731" lon="6.15587">
        <ele>1066.2392578</ele>
        <time>2011-11-29T13:04:51Z</time>
      </trkpt>
      <trkpt lat="44.42713" lon="6.15569">
        <ele>1062.8747559</ele>
        <time>2011-11-29T13:04:56Z</time>
      </trkpt>
      <trkpt lat="44.42692" lon="6.15542">
        <ele>1059.9907227</ele>
        <time>2011-11-29T13:05:04Z</time>
      </trkpt>
      <trkpt lat="44.4267" lon="6.15518">
        <ele>1056.6262207</ele>
        <time>2011-11-29T13:05:13Z</time>
      </trkpt>
      <trkpt lat="44.42664" lon="6.15514">
        <ele>1055.6650391</ele>
        <time>2011-11-29T13:05:15Z</time>
      </trkpt>
      <trkpt lat="44.4265" lon="6.15502">
        <ele>1052.300293</ele>
        <time>2011-11-29T13:05:21Z</time>
      </trkpt>
      <trkpt lat="44.42648" lon="6.155">
        <ele>1052.300293</ele>
        <time>2011-11-29T13:05:22Z</time>
      </trkpt>
      <trkpt lat="44.42637" lon="6.15493">
        <ele>1049.8969727</ele>
        <time>2011-11-29T13:05:26Z</time>
      </trkpt>
      <trkpt lat="44.42622" lon="6.15484">
        <ele>1047.4936523</ele>
        <time>2011-11-29T13:05:31Z</time>
      </trkpt>
      <trkpt lat="44.42611" lon="6.15478">
        <ele>1045.090332</ele>
        <time>2011-11-29T13:05:35Z</time>
      </trkpt>
      <trkpt lat="44.42593" lon="6.15444">
        <ele>1041.7258301</ele>
        <time>2011-11-29T13:05:43Z</time>
      </trkpt>
      <trkpt lat="44.42587" lon="6.15434">
        <ele>1040.7644043</ele>
        <time>2011-11-29T13:05:45Z</time>
      </trkpt>
      <trkpt lat="44.42576" lon="6.15414">
        <ele>1038.3613281</ele>
        <time>2011-11-29T13:05:49Z</time>
      </trkpt>
      <trkpt lat="44.42569" lon="6.154">
        <ele>1036.4387207</ele>
        <time>2011-11-29T13:05:52Z</time>
      </trkpt>
      <trkpt lat="44.42562" lon="6.15387">
        <ele>1034.5158691</ele>
        <time>2011-11-29T13:05:55Z</time>
      </trkpt>
      <trkpt lat="44.42552" lon="6.15369">
        <ele>1032.5932617</ele>
        <time>2011-11-29T13:05:59Z</time>
      </trkpt>
      <trkpt lat="44.42543" lon="6.15348">
        <ele>1030.6706543</ele>
        <time>2011-11-29T13:06:03Z</time>
      </trkpt>
      <trkpt lat="44.42534" lon="6.15326">
        <ele>1028.7480469</ele>
        <time>2011-11-29T13:06:06Z</time>
      </trkpt>
      <trkpt lat="44.42518" lon="6.15284">
        <ele>1025.3833008</ele>
        <time>2011-11-29T13:06:13Z</time>
      </trkpt>
      <trkpt lat="44.42513" lon="6.15274">
        <ele>1023.4609375</ele>
        <time>2011-11-29T13:06:15Z</time>
      </trkpt>
      <trkpt lat="44.42497" lon="6.15248">
        <ele>1020.5769043</ele>
        <time>2011-11-29T13:06:21Z</time>
      </trkpt>
      <trkpt lat="44.42474" lon="6.15229">
        <ele>1018.6540527</ele>
        <time>2011-11-29T13:06:28Z</time>
      </trkpt>
      <trkpt lat="44.42456" lon="6.15203">
        <ele>1015.2895508</ele>
        <time>2011-11-29T13:06:37Z</time>
      </trkpt>
      <trkpt lat="44.42454" lon="6.15198">
        <ele>1015.2895508</ele>
        <time>2011-11-29T13:06:38Z</time>
      </trkpt>
      <trkpt lat="44.42447" lon="6.15188">
        <ele>1013.8474121</ele>
        <time>2011-11-29T13:06:40Z</time>
      </trkpt>
      <trkpt lat="44.42429" lon="6.15176">
        <ele>1010.963623</ele>
        <time>2011-11-29T13:06:45Z</time>
      </trkpt>
      <trkpt lat="44.42412" lon="6.15177">
        <ele>1007.5991211</ele>
        <time>2011-11-29T13:06:49Z</time>
      </trkpt>
      <trkpt lat="44.4241" lon="6.15177">
        <ele>1007.5991211</ele>
        <time>2011-11-29T13:06:50Z</time>
      </trkpt>
      <trkpt lat="44.42398" lon="6.15178">
        <ele>1007.1184082</ele>
        <time>2011-11-29T13:07:01Z</time>
      </trkpt>
      <trkpt lat="44.42398" lon="6.15178">
        <ele>1006.1569824</ele>
        <time>2011-11-29T13:07:36Z</time>
      </trkpt>
      <trkpt lat="44.42387" lon="6.15179">
        <ele>1005.6765137</ele>
        <time>2011-11-29T13:07:41Z</time>
      </trkpt>
      <trkpt lat="44.42384" lon="6.1518">
        <ele>1004.7150879</ele>
        <time>2011-11-29T13:07:43Z</time>
      </trkpt>
      <trkpt lat="44.42379" lon="6.15181">
        <ele>1003.7536621</ele>
        <time>2011-11-29T13:07:45Z</time>
      </trkpt>
      <trkpt lat="44.42375" lon="6.15183">
        <ele>1002.3115234</ele>
        <time>2011-11-29T13:07:46Z</time>
      </trkpt>
      <trkpt lat="44.42363" lon="6.1519">
        <ele>1000.8696289</ele>
        <time>2011-11-29T13:07:49Z</time>
      </trkpt>
      <trkpt lat="44.42325" lon="6.15218">
        <ele>997.9858398</ele>
        <time>2011-11-29T13:08:00Z</time>
      </trkpt>
      <trkpt lat="44.42277" lon="6.15241">
        <ele>995.1018066</ele>
        <time>2011-11-29T13:08:14Z</time>
      </trkpt>
      <trkpt lat="44.42254" lon="6.15256">
        <ele>992.6987305</ele>
        <time>2011-11-29T13:08:26Z</time>
      </trkpt>
      <trkpt lat="44.4223" lon="6.15274">
        <ele>989.3339844</ele>
        <time>2011-11-29T13:08:37Z</time>
      </trkpt>
      <trkpt lat="44.42214" lon="6.1529">
        <ele>986.4499512</ele>
        <time>2011-11-29T13:08:47Z</time>
      </trkpt>
      <trkpt lat="44.42197" lon="6.15314">
        <ele>983.0852051</ele>
        <time>2011-11-29T13:09:00Z</time>
      </trkpt>
      <trkpt lat="44.42193" lon="6.15322">
        <ele>982.1240234</ele>
        <time>2011-11-29T13:09:04Z</time>
      </trkpt>
      <trkpt lat="44.42187" lon="6.15331">
        <ele>979.7207031</ele>
        <time>2011-11-29T13:09:16Z</time>
      </trkpt>
      <trkpt lat="44.42182" lon="6.1534">
        <ele>977.7980957</ele>
        <time>2011-11-29T13:09:22Z</time>
      </trkpt>
      <trkpt lat="44.4218" lon="6.15343">
        <ele>976.8369141</ele>
        <time>2011-11-29T13:09:25Z</time>
      </trkpt>
      <trkpt lat="44.42175" lon="6.15351">
        <ele>973.9528809</ele>
        <time>2011-11-29T13:09:38Z</time>
      </trkpt>
      <trkpt lat="44.42167" lon="6.15363">
        <ele>971.5493164</ele>
        <time>2011-11-29T13:09:52Z</time>
      </trkpt>
      <trkpt lat="44.42167" lon="6.15363">
        <ele>970.1074219</ele>
        <time>2011-11-29T13:10:07Z</time>
      </trkpt>
      <trkpt lat="44.42167" lon="6.15363">
        <ele>969.6269531</ele>
        <time>2011-11-29T13:10:29Z</time>
      </trkpt>
      <trkpt lat="44.42167" lon="6.15363">
        <ele>969.6269531</ele>
        <time>2011-11-29T13:10:55Z</time>
      </trkpt>
      <trkpt lat="44.42153" lon="6.15387">
        <ele>968.1848145</ele>
        <time>2011-11-29T13:11:15Z</time>
      </trkpt>
      <trkpt lat="44.42147" lon="6.15404">
        <ele>965.3010254</ele>
        <time>2011-11-29T13:11:22Z</time>
      </trkpt>
      <trkpt lat="44.42146" lon="6.15407">
        <ele>965.3010254</ele>
        <time>2011-11-29T13:11:23Z</time>
      </trkpt>
      <trkpt lat="44.42139" lon="6.15426">
        <ele>962.4169922</ele>
        <time>2011-11-29T13:11:37Z</time>
      </trkpt>
      <trkpt lat="44.4213" lon="6.15446">
        <ele>959.0524902</ele>
        <time>2011-11-29T13:11:54Z</time>
      </trkpt>
      <trkpt lat="44.42119" lon="6.15465">
        <ele>955.6877441</ele>
        <time>2011-11-29T13:12:08Z</time>
      </trkpt>
      <trkpt lat="44.42119" lon="6.15465">
        <ele>953.2844238</ele>
        <time>2011-11-29T13:12:22Z</time>
      </trkpt>
      <trkpt lat="44.42119" lon="6.15465">
        <ele>949.9199219</ele>
        <time>2011-11-29T13:12:35Z</time>
      </trkpt>
      <trkpt lat="44.42119" lon="6.15465">
        <ele>947.0358887</ele>
        <time>2011-11-29T13:12:50Z</time>
      </trkpt>
      <trkpt lat="44.42119" lon="6.15465">
        <ele>943.6713867</ele>
        <time>2011-11-29T13:13:06Z</time>
      </trkpt>
      <trkpt lat="44.42119" lon="6.15465">
        <ele>940.3068848</ele>
        <time>2011-11-29T13:13:20Z</time>
      </trkpt>
      <trkpt lat="44.42119" lon="6.15465">
        <ele>937.4226074</ele>
        <time>2011-11-29T13:13:34Z</time>
      </trkpt>
      <trkpt lat="44.42119" lon="6.15465">
        <ele>934.0581055</ele>
        <time>2011-11-29T13:13:47Z</time>
      </trkpt>
      <trkpt lat="44.42057" lon="6.15558">
        <ele>930.6936035</ele>
        <time>2011-11-29T13:14:03Z</time>
      </trkpt>
      <trkpt lat="44.42047" lon="6.15566">
        <ele>927.3291016</ele>
        <time>2011-11-29T13:14:15Z</time>
      </trkpt>
      <trkpt lat="44.42037" lon="6.15577">
        <ele>924.9257813</ele>
        <time>2011-11-29T13:14:26Z</time>
      </trkpt>
      <trkpt lat="44.42023" lon="6.15594">
        <ele>920.5996094</ele>
        <time>2011-11-29T13:14:34Z</time>
      </trkpt>
      <trkpt lat="44.42022" lon="6.15596">
        <ele>920.5996094</ele>
        <time>2011-11-29T13:14:35Z</time>
      </trkpt>
      <trkpt lat="44.4201" lon="6.15612">
        <ele>917.2351074</ele>
        <time>2011-11-29T13:14:41Z</time>
      </trkpt>
      <trkpt lat="44.42008" lon="6.15616">
        <ele>917.2351074</ele>
        <time>2011-11-29T13:14:42Z</time>
      </trkpt>
      <trkpt lat="44.42005" lon="6.15621">
        <ele>915.7932129</ele>
        <time>2011-11-29T13:14:44Z</time>
      </trkpt>
      <trkpt lat="44.41998" lon="6.1563">
        <ele>913.3898926</ele>
        <time>2011-11-29T13:14:49Z</time>
      </trkpt>
      <trkpt lat="44.41989" lon="6.15643">
        <ele>910.9865723</ele>
        <time>2011-11-29T13:14:55Z</time>
      </trkpt>
      <trkpt lat="44.41978" lon="6.15652">
        <ele>907.1411133</ele>
        <time>2011-11-29T13:15:02Z</time>
      </trkpt>
      <trkpt lat="44.41975" lon="6.15653">
        <ele>907.1411133</ele>
        <time>2011-11-29T13:15:03Z</time>
      </trkpt>
      <trkpt lat="44.41962" lon="6.15651">
        <ele>903.7766113</ele>
        <time>2011-11-29T13:15:08Z</time>
      </trkpt>
      <trkpt lat="44.41952" lon="6.15652">
        <ele>902.3344727</ele>
        <time>2011-11-29T13:15:12Z</time>
      </trkpt>
      <trkpt lat="44.41941" lon="6.15658">
        <ele>899.4506836</ele>
        <time>2011-11-29T13:15:17Z</time>
      </trkpt>
      <trkpt lat="44.41938" lon="6.1566">
        <ele>898.4892578</ele>
        <time>2011-11-29T13:15:18Z</time>
      </trkpt>
      <trkpt lat="44.4193" lon="6.15669">
        <ele>897.0473633</ele>
        <time>2011-11-29T13:15:21Z</time>
      </trkpt>
      <trkpt lat="44.41924" lon="6.15678">
        <ele>895.1247559</ele>
        <time>2011-11-29T13:15:24Z</time>
      </trkpt>
      <trkpt lat="44.41915" lon="6.15691">
        <ele>892.7216797</ele>
        <time>2011-11-29T13:15:28Z</time>
      </trkpt>
      <trkpt lat="44.41911" lon="6.15709">
        <ele>889.3566895</ele>
        <time>2011-11-29T13:15:32Z</time>
      </trkpt>
      <trkpt lat="44.4191" lon="6.15713">
        <ele>889.3566895</ele>
        <time>2011-11-29T13:15:33Z</time>
      </trkpt>
      <trkpt lat="44.41903" lon="6.15723">
        <ele>887.9147949</ele>
        <time>2011-11-29T13:15:35Z</time>
      </trkpt>
      <trkpt lat="44.41903" lon="6.15736">
        <ele>885.5114746</ele>
        <time>2011-11-29T13:15:38Z</time>
      </trkpt>
      <trkpt lat="44.41903" lon="6.15747">
        <ele>885.0310059</ele>
        <time>2011-11-29T13:15:40Z</time>
      </trkpt>
      <trkpt lat="44.41903" lon="6.15765">
        <ele>884.550293</ele>
        <time>2011-11-29T13:15:49Z</time>
      </trkpt>
      <trkpt lat="44.41903" lon="6.15765">
        <ele>884.550293</ele>
        <time>2011-11-29T13:16:15Z</time>
      </trkpt>
      <trkpt lat="44.41901" lon="6.15819">
        <ele>882.6276855</ele>
        <time>2011-11-29T13:16:27Z</time>
      </trkpt>
      <trkpt lat="44.41895" lon="6.15897">
        <ele>879.2629395</ele>
        <time>2011-11-29T13:16:39Z</time>
      </trkpt>
      <trkpt lat="44.41868" lon="6.16045">
        <ele>876.3791504</ele>
        <time>2011-11-29T13:16:57Z</time>
      </trkpt>
      <trkpt lat="44.41864" lon="6.16078">
        <ele>876.8598633</ele>
        <time>2011-11-29T13:17:03Z</time>
      </trkpt>
      <trkpt lat="44.41863" lon="6.1609">
        <ele>877.8210449</ele>
        <time>2011-11-29T13:17:05Z</time>
      </trkpt>
      <trkpt lat="44.41865" lon="6.16118">
        <ele>878.3017578</ele>
        <time>2011-11-29T13:17:13Z</time>
      </trkpt>
      <trkpt lat="44.41865" lon="6.16122">
        <ele>878.3017578</ele>
        <time>2011-11-29T13:17:25Z</time>
      </trkpt>
      <trkpt lat="44.41865" lon="6.16122">
        <ele>878.3017578</ele>
        <time>2011-11-29T13:17:43Z</time>
      </trkpt>
      <trkpt lat="44.41865" lon="6.16122">
        <ele>879.2629395</ele>
        <time>2011-11-29T13:18:17Z</time>
      </trkpt>
      <trkpt lat="44.41865" lon="6.16122">
        <ele>879.7436523</ele>
        <time>2011-11-29T13:19:11Z</time>
      </trkpt>
    </trkseg>
  </trk>
</gpx>